GEFSNGP_con_cape1000_060.txt.gz
Probability
0 0 0 0 0 0 0 0 0 0 0 0 0 0 0 0 0 0 0 0 0 0 0 0 0 0 0 0 0 0 0 0 0 0 0 0 0 0 0 0 0 0 0 0
0 0 0 0 0 0 0 0 0 0 0 0 0 0 0 0 0 0 0 0 0 0 0 0 0 0 0 0 0 0 0 0 0 0 0 0 0 0 0 0 0 0 0 0
0 0 0 0 0 0 0 0 0 0 0 0 0 0 0 0 0 0 0 0 0 0 0 0 0 0 0 0 0 0 0 0 0 0 0 0 0 0 0 0 0 0 0 0
0 0 0 0 0 0 0 0 0 0 0 0 0 0 0 0 0 0 0 0 0 0 0 0 0 0 0 0 0 0 0 0 0 0 0 0 0 0 0 0 0 0 0 0
0 0 0 0 0 0 0 0 0 0 0 0 0 0 0 0 0 0 0 0 0 0 0 0 0 0 0 0 0 0 0 0 0 0 0 0 0 0 0 0 0 0 0 0
0 0 0 0 0 0 0 0 0 0 0 0 0 0 0 0 0 0 0 0 0 0 0 0 0 0 0 0 0 0 0 0 0 0 0 0 0 0 0 0 0 0 0 0
0 0 0 0 0 0 0 3 3 0 0 0 0 0 0 0 0 0 0 0 0 0 0 0 0 0 0 0 0 0 0 0 0 0 0 0 0 0 0 0 0 0 0 0
0 0 0 0 0 0 6 10 3 3 3 0 0 0 0 0 0 0 0 0 0 0 0 0 0 0 0 0 0 0 0 0 0 0 0 0 0 0 0 0 0 0 0 0
0 0 10 0 0 3 3 3 6 3 0 0 0 0 0 0 0 0 0 0 0 0 0 0 0 0 0 0 0 0 0 0 0 0 0 0 0 0 0 0 0 0 0 0
0 0 0 0 0 3 3 3 3 0 0 0 0 0 0 0 0 0 0 0 0 0 0 0 0 0 0 0 0 0 0 0 0 0 0 0 0 0 0 0 0 0 0 0
0 0 0 0 0 0 0 0 0 0 0 0 0 0 0 0 0 0 0 0 0 0 0 0 0 0 0 0 0 0 0 0 0 0 0 0 0 0 0 0 0 0 0 0
0 0 0 0 0 0 0 0 0 0 0 0 0 0 0 0 0 0 0 0 0 0 0 0 0 0 0 0 0 0 0 0 0 0 0 0 0 0 0 0 0 0 0 0
0 0 0 0 0 0 0 0 0 0 0 0 0 0 0 0 0 0 0 0 0 0 0 0 0 0 0 0 0 0 0 0 0 0 0 0 0 0 0 0 0 0 0 0
0 0 0 0 0 0 0 0 0 0 0 0 0 0 0 0 0 0 0 0 0 0 0 0 0 0 0 0 0 0 0 0 0 0 0 0 0 0 0 0 0 0 0 0
0 0 0 0 0 0 0 0 0 0 0 0 0 0 0 0 0 0 0 0 0 0 0 0 0 0 0 0 0 0 0 0 0 0 0 0 0 0 0 0 0 0 0 0
0 0 0 0 0 0 0 0 0 0 0 0 0 0 0 0 0 0 0 0 0 0 0 0 0 0 0 0 0 0 0 0 0 0 0 0 0 0 0 0 0 0 0 0
0 0 0 0 0 0 0 0 0 0 0 0 0 0 0 0 0 0 0 0 0 0 0 0 0 0 0 0 0 0 0 0 0 0 0 0 0 0 0 0 0 0 0 0
0 0 0 0 0 0 0 0 0 0 0 0 0 0 0 0 0 0 0 0 0 0 0 0 0 0 0 0 0 0 0 0 0 0 0 0 0 0 0 0 0 0 0 0
0 0 0 0 0 0 0 0 0 0 0 0 0 0 0 0 0 0 0 0 0 0 0 0 0 0 0 0 0 0 0 0 0 0 0 0 0 0 0 0 0 0 0 0
0 0 0 0 0 0 0 0 0 0 0 0 0 0 0 0 0 0 0 0 0 0 0 0 0 0 0 0 0 0 0 0 0 0 0 0 0 0 0 0 0 0 0 0
0 0 0 0 0 0 0 0 0 0 0 0 0 0 0 0 0 0 0 0 0 0 0 0 0 0 0 0 0 0 0 0 0 0 0 0 0 0 0 0 0 0 0 0
0 0 0 0 0 0 0 0 0 0 0 0 0 0 0 0 0 0 0 0 0 0 0 0 0 0 0 0 0 0 0 0 0 0 0 0 0 0 0 0 0 0 0 0
0 0 0 0 0 0 0 0 0 0 0 0 0 0 0 0 0 0 0 0 0 0 0 0 0 0 0 0 0 0 0 0 0 0 0 0 0 0 0 0 0 0 0 0
0 0 0 0 0 0 0 0 0 0 0 0 0 0 0 0 0 0 0 0 0 0 0 0 0 0 0 0 0 0 0 0 0 0 0 0 0 0 0 0 0 0 0 0
0 0 0 0 0 0 0 0 0 0 0 0 0 0 0 0 0 0 0 0 0 0 0 0 0 0 0 0 0 0 0 0 0 0 0 0 0 0 0 0 0 0 0 0
0 0 0 0 0 0 0 0 0 0 0 0 0 0 0 0 0 0 0 0 0 0 0 0 0 0 0 0 0 0 0 0 0 0 0 0 0 0 0 0 0 0 0 0
0 0 0 0 0 0 0 0 0 0 0 0 0 0 0 0 0 0 0 0 0 0 0 0 0 0 0 0 0 0 0 0 0 0 0 0 0 0 0 0 0 0 0 0

GEFSNGP_con_cape1000_066.txt.gz
Probability
0 0 0 0 0 0 0 0 0 0 0 0 3 3 6 3 3 10 19 19 29 45 45 29 13 10 3 0 0 0 0 0 0 0 3 0 0 0 0 0 0 0 0 0
0 0 0 0 0 0 0 0 0 0 0 0 3 3 3 0 0 10 13 13 23 29 42 39 19 13 6 3 0 0 0 0 0 0 0 0 0 0 0 0 0 0 0 0
0 0 0 0 0 0 0 0 0 0 0 0 0 0 3 3 3 6 3 10 29 29 42 42 26 16 13 13 10 0 0 0 0 0 0 3 0 0 0 0 6 6 3 0
0 0 3 6 0 0 0 0 0 0 0 0 0 0 0 3 0 3 0 3 23 23 39 32 23 13 16 10 10 0 0 0 0 0 0 0 3 3 6 6 6 6 3 3
0 0 0 0 0 0 0 0 0 3 0 0 0 0 0 3 0 0 0 3 13 10 3 16 10 10 13 10 6 0 0 0 0 0 0 0 0 6 13 10 6 6 0 0
3 0 0 0 0 0 0 6 6 3 3 0 0 0 0 0 3 3 6 3 10 3 3 26 29 26 10 6 6 3 0 0 0 3 3 0 0 10 6 10 3 0 0 3
13 0 0 0 0 0 3 10 0 0 0 0 23 13 10 0 13 16 19 19 23 16 16 29 48 32 23 16 13 6 6 0 0 3 3 0 3 6 6 3 3 3 3 3
23 16 3 0 0 6 32 26 0 3 0 3 3 3 16 32 42 39 26 19 23 48 52 61 48 45 52 48 29 26 13 6 3 3 0 0 3 13 6 6 3 3 3 3
26 23 16 6 3 0 10 6 6 10 0 0 6 13 29 45 55 32 29 45 35 55 74 77 61 68 61 58 48 32 23 10 13 13 6 3 3 3 6 3 3 0 0 0
26 19 10 3 6 6 3 3 0 0 0 0 16 16 16 39 52 55 45 42 48 52 52 61 61 58 61 55 39 35 35 29 19 13 13 6 3 3 3 3 0 0 0 0
13 19 13 6 0 0 0 0 0 6 0 0 3 13 13 29 32 39 29 23 39 55 65 61 65 58 55 48 39 32 23 19 13 3 3 19 6 3 6 6 0 0 0 0
19 35 23 3 0 0 0 0 0 3 3 3 3 3 6 10 10 6 16 13 13 23 35 29 45 42 45 39 32 32 26 16 6 3 3 3 3 3 0 0 0 0 0 0
13 3 0 0 0 0 0 0 0 0 0 0 0 3 3 3 3 3 3 3 3 3 3 10 16 19 19 32 35 35 29 26 3 0 0 3 0 3 0 0 0 0 0 0
13 6 0 0 0 0 0 0 0 0 0 0 0 0 0 0 0 0 0 0 0 0 3 3 6 13 13 16 23 26 23 6 3 3 0 0 0 0 0 0 0 0 0 0
0 0 0 0 0 0 0 0 0 0 0 0 0 0 0 0 0 0 0 0 0 0 0 0 0 3 10 6 13 10 3 3 3 3 3 0 0 0 0 0 0 0 0 0
0 0 0 0 0 0 0 0 0 0 0 0 0 0 0 0 0 0 0 0 0 0 0 0 0 0 0 3 3 0 3 0 0 0 0 0 0 0 0 0 0 0 0 0
0 0 0 0 0 0 0 0 0 0 0 0 0 0 0 0 0 0 0 0 0 0 0 0 0 0 0 0 0 0 0 0 0 0 0 0 0 0 0 0 0 0 0 0
0 0 0 0 0 0 0 0 0 0 0 0 0 0 0 0 0 0 0 0 0 0 0 0 0 0 0 0 0 0 0 0 0 0 0 0 0 0 0 0 0 0 0 0
0 0 0 0 0 0 0 0 0 0 0 0 0 0 0 0 0 0 0 0 0 0 0 0 0 0 0 0 0 0 0 0 0 0 0 0 0 0 0 0 0 0 0 3
0 0 0 0 0 0 0 0 0 0 0 0 0 0 0 0 0 0 0 0 0 0 0 0 0 0 0 0 0 0 0 0 0 0 0 0 0 0 0 0 0 0 0 0
0 0 0 0 0 0 0 0 0 0 0 0 0 0 0 0 0 0 0 0 0 0 0 0 0 0 0 0 0 0 0 0 0 0 0 0 0 0 0 0 0 0 0 0
0 0 0 0 0 0 0 0 0 0 0 0 0 0 0 0 0 0 0 0 0 0 0 0 0 0 0 0 0 0 0 0 0 0 0 0 0 0 0 0 0 0 0 0
0 0 0 0 0 0 0 0 0 0 0 0 0 0 0 0 0 0 0 0 0 0 0 0 0 0 0 0 0 0 0 0 0 0 0 0 0 0 0 0 0 0 0 0
0 0 0 0 0 0 0 0 0 0 0 0 0 0 0 0 0 0 0 0 0 0 0 0 0 0 0 0 0 0 0 0 0 0 0 0 0 0 0 0 0 0 0 0
0 0 0 0 0 0 0 0 0 0 0 0 0 0 0 0 0 0 0 0 0 0 0 0 0 0 0 0 0 0 0 0 0 0 0 0 0 0 0 0 0 0 0 0
0 0 0 0 0 0 0 0 0 0 0 0 0 0 0 0 0 0 0 0 0 0 0 0 0 0 0 0 0 0 0 0 0 0 0 0 0 0 0 0 0 0 0 0
0 0 0 0 0 0 0 0 0 0 0 0 0 0 0 0 0 0 0 0 0 0 0 0 0 0 0 0 0 0 0 0 0 0 0 0 0 0 0 0 0 0 0 0

GEFSNGP_con_cape1000_072.txt.gz
Probability
0 0 0 0 0 0 0 0 0 0 0 0 0 0 0 0 0 0 0 0 0 0 0 0 3 3 6 0 0 0 0 0 0 0 0 0 0 0 0 0 0 0 0 0
0 0 0 0 0 0 0 0 0 0 0 0 0 0 0 0 0 0 0 0 0 0 0 0 0 0 0 0 0 0 0 0 0 0 0 0 0 0 0 0 0 0 0 0
0 0 0 0 0 0 0 0 0 0 0 0 0 0 0 0 0 0 0 0 0 0 0 0 0 0 0 0 0 0 0 0 0 0 0 0 0 0 0 0 0 0 0 0
0 0 0 0 0 0 0 0 0 0 0 0 0 0 0 0 0 0 0 0 0 0 0 0 0 0 0 0 0 0 0 0 0 0 0 0 0 0 0 0 0 0 0 0
0 0 0 0 0 0 0 0 0 0 0 0 0 0 0 0 0 0 0 0 0 0 0 0 0 0 0 0 0 0 0 0 0 0 0 0 0 0 0 0 0 0 0 0
0 0 0 0 0 0 0 0 0 0 0 0 0 0 0 0 0 0 0 0 0 0 0 0 0 0 0 0 0 0 0 0 0 0 0 0 0 0 0 0 0 0 0 0
0 0 0 0 0 0 0 0 0 0 0 0 0 0 0 0 0 0 0 0 0 0 0 0 0 0 0 0 0 0 0 0 0 0 0 0 0 0 0 0 0 0 0 0
0 0 0 0 0 0 0 0 0 0 0 0 0 0 0 0 0 0 0 0 0 0 0 0 0 0 0 0 0 0 0 0 0 0 0 0 0 0 0 0 0 0 0 0
0 0 0 0 0 0 0 0 0 0 0 0 0 0 0 0 0 0 0 0 0 0 0 0 0 0 0 0 0 0 0 0 0 0 0 0 0 0 0 0 0 0 0 0
0 0 0 0 0 0 0 0 0 0 0 0 0 0 0 0 0 0 0 0 0 0 0 0 0 0 0 0 0 0 0 0 0 0 0 0 0 0 0 0 0 0 0 0
0 0 0 0 0 0 0 0 0 0 0 0 0 0 0 0 0 0 0 0 0 0 0 0 0 0 0 0 0 0 0 0 0 0 0 0 0 0 0 0 0 0 0 0
0 0 0 0 0 0 0 0 0 0 0 0 0 0 0 0 0 0 0 0 0 0 0 0 0 0 0 0 0 0 0 0 0 0 0 0 0 0 0 0 0 0 0 0
0 0 0 0 0 0 0 0 0 0 0 0 0 0 0 0 0 0 0 0 0 0 0 0 0 0 0 0 0 0 0 0 0 0 0 0 0 0 0 0 0 0 0 0
0 0 0 0 0 0 0 0 0 0 0 0 0 0 0 0 0 0 0 0 0 0 0 0 0 0 0 0 0 0 0 0 0 0 0 0 0 0 0 0 0 0 0 0
0 0 0 0 0 0 0 0 0 0 0 0 0 0 0 0 0 0 0 0 0 0 0 0 0 0 0 0 0 0 0 0 0 0 0 0 0 0 0 0 0 0 0 0
0 0 0 0 0 0 0 0 0 0 0 0 0 0 0 0 0 0 0 0 0 0 0 0 0 0 0 0 0 0 0 0 0 0 0 0 0 0 0 0 0 0 0 0
0 0 0 0 0 0 0 0 0 0 0 0 0 0 0 0 0 0 0 0 0 0 0 0 0 0 0 0 0 0 0 0 0 0 0 0 0 0 0 0 0 0 0 0
0 0 0 0 0 0 0 0 0 0 0 0 0 0 0 0 0 0 0 0 0 0 0 0 0 0 0 0 0 0 0 0 0 0 0 0 0 0 0 0 0 0 0 0
0 0 0 0 0 0 0 0 0 0 0 0 0 0 0 0 0 0 0 0 0 0 0 0 0 0 0 0 0 0 0 0 0 0 0 0 0 0 0 0 0 0 0 0
0 0 0 0 0 0 0 0 0 0 0 0 0 0 0 0 0 0 0 0 0 0 0 0 0 0 0 0 0 0 0 0 0 0 0 0 0 0 0 0 0 0 0 0
0 0 0 0 0 0 0 0 0 0 0 0 0 0 0 0 0 0 0 0 0 0 0 0 0 0 0 0 0 0 0 0 0 0 0 0 0 0 0 0 0 0 0 0
0 0 0 0 0 0 0 0 0 0 0 0 0 0 0 0 0 0 0 0 0 0 0 0 0 0 0 0 0 0 0 0 0 0 0 0 0 0 0 0 0 0 0 0
0 0 0 0 0 0 0 0 0 0 0 0 0 0 0 0 0 0 0 0 0 0 0 0 0 0 0 0 0 0 0 0 0 0 0 0 0 0 0 0 0 0 0 0
0 0 0 0 0 0 0 0 0 0 0 0 0 0 0 0 0 0 0 0 0 0 0 0 0 0 0 0 0 0 0 0 0 0 0 0 0 0 0 0 0 0 0 0
0 0 0 0 0 0 0 0 0 0 0 0 0 0 0 0 0 0 0 0 0 0 0 0 0 0 0 0 0 0 0 0 0 0 0 0 0 0 0 0 0 0 0 0
0 0 0 0 0 0 0 0 0 0 0 0 0 0 0 0 0 0 0 0 0 0 0 0 0 0 0 0 0 0 0 0 0 0 0 0 0 0 0 0 0 0 0 0
0 0 0 0 0 0 0 0 0 0 0 0 0 0 0 0 0 0 0 0 0 0 0 0 0 0 0 0 0 0 0 0 0 0 0 0 0 0 0 0 0 0 0 0

GEFSNGP_con_cape1000_078.txt.gz
Probability
0 0 0 0 0 0 0 0 0 0 0 0 0 0 0 0 0 0 0 0 0 0 0 0 0 0 0 0 0 0 0 3 3 3 0 0 0 0 0 0 0 0 0 0
0 0 0 0 0 0 0 0 0 0 0 0 0 0 0 0 0 0 0 0 0 0 0 0 0 0 0 0 3 3 0 3 3 0 0 0 0 0 0 0 0 0 0 0
0 0 0 0 0 0 0 0 0 0 0 0 0 0 0 0 0 0 0 0 0 0 0 0 0 0 0 0 0 0 0 0 0 0 0 0 0 0 0 0 0 0 0 0
0 0 0 0 0 0 0 0 0 0 0 0 0 0 0 0 0 0 0 0 0 0 0 0 0 0 0 0 0 0 0 0 0 0 0 0 0 0 0 0 0 0 0 0
0 0 0 0 0 0 0 0 0 0 0 0 0 0 0 0 0 0 0 0 0 0 0 0 0 0 0 0 0 0 0 0 0 0 0 0 0 0 0 0 0 0 0 0
0 0 0 0 0 0 0 0 0 0 0 0 0 0 0 0 0 0 0 0 0 0 0 0 0 0 0 0 0 0 0 0 0 0 0 0 0 0 0 0 0 0 0 0
0 0 0 0 0 0 0 0 0 0 0 0 0 0 0 0 0 0 0 0 0 0 0 0 0 0 0 0 0 0 0 0 0 0 0 0 0 0 0 0 0 0 0 0
0 0 0 0 0 0 0 0 0 0 0 0 0 0 0 0 0 0 0 0 0 0 0 0 0 0 0 0 0 0 0 0 0 0 0 0 0 0 0 0 0 0 0 0
0 0 0 0 0 0 0 0 0 0 0 0 0 0 0 0 0 0 0 0 0 0 0 0 0 0 0 0 0 0 0 0 0 0 0 0 0 0 0 0 0 0 0 0
0 0 0 0 0 0 0 0 0 0 0 0 0 0 0 0 0 0 0 0 0 0 0 0 0 0 0 0 0 0 0 0 0 0 0 0 0 0 0 0 0 0 0 0
0 0 0 0 0 0 0 0 0 0 0 0 0 0 0 0 0 0 0 0 0 0 0 0 0 0 0 0 0 0 0 0 0 0 0 0 0 0 0 0 0 0 0 0
0 0 0 0 0 0 0 0 0 0 0 0 0 0 0 0 0 0 0 0 0 0 0 0 0 0 0 0 0 0 0 0 0 0 0 0 0 0 0 0 0 0 0 0
0 0 0 0 0 0 0 0 0 0 0 0 0 0 0 0 0 0 0 0 0 0 0 0 0 0 0 0 0 0 0 0 0 0 0 0 0 0 0 0 0 0 0 0
0 0 0 0 0 0 0 0 0 0 0 0 0 0 0 0 0 0 0 0 0 0 0 0 0 0 0 0 0 0 0 0 0 0 0 0 0 0 0 0 0 0 0 0
0 0 0 0 0 0 0 0 0 0 0 0 0 0 0 0 0 0 0 0 0 0 0 0 0 0 0 0 0 0 0 0 0 0 0 0 0 0 0 0 0 0 0 0
0 0 0 0 0 0 0 0 0 0 0 0 0 0 0 0 0 0 0 0 0 0 0 0 0 0 0 0 0 0 0 0 0 0 0 0 0 0 0 0 0 0 0 0
0 0 0 0 0 0 0 0 0 0 0 0 0 0 0 0 0 0 0 0 0 0 0 0 0 0 0 0 0 0 0 0 0 0 0 0 0 0 0 0 0 0 0 0
0 0 0 0 0 0 0 0 0 0 0 0 0 0 0 0 0 0 0 0 0 0 0 0 0 0 0 0 0 0 0 0 0 0 0 0 0 0 0 0 0 0 0 0
0 0 0 0 0 0 0 0 0 0 0 0 0 0 0 0 0 0 0 0 0 0 0 0 0 0 0 0 0 0 0 0 0 0 0 0 0 0 0 0 0 0 0 0
0 0 0 0 0 0 0 0 0 0 0 0 0 0 0 0 0 0 0 0 0 0 0 0 0 0 0 0 0 0 0 0 0 0 0 0 0 0 0 0 0 0 0 0
0 0 0 0 0 0 0 0 0 0 0 0 0 0 0 0 0 0 0 0 0 0 0 0 0 0 0 0 0 0 0 0 0 0 0 0 0 0 0 0 0 0 0 0
0 0 0 0 0 0 0 0 0 0 0 0 0 0 0 0 0 0 0 0 0 0 0 0 0 0 0 0 0 0 0 0 0 0 0 0 0 0 0 0 0 0 0 0
0 0 0 0 0 0 0 0 0 0 0 0 0 0 0 0 0 0 0 0 0 0 0 0 0 0 0 0 0 0 0 0 0 0 0 0 0 0 0 0 0 0 0 0
0 0 0 0 0 0 0 0 0 0 0 0 0 0 0 0 0 0 0 0 0 0 0 0 0 0 0 0 0 0 0 0 0 0 0 0 0 0 0 0 0 0 0 0
0 0 0 0 0 0 0 0 0 0 0 0 0 0 0 0 0 0 0 0 0 0 0 0 0 0 0 0 0 0 0 0 0 0 0 0 0 0 0 0 0 0 0 0
0 0 0 0 0 0 0 0 0 0 0 0 0 0 0 0 0 0 0 0 0 0 0 0 0 0 0 0 0 0 0 0 0 0 0 0 0 0 0 0 0 0 0 0
0 0 0 0 0 0 0 0 0 0 0 0 0 0 0 0 0 0 0 0 0 0 0 0 0 0 0 0 0 0 0 0 0 0 0 0 0 0 0 0 0 0 0 0

GEFSNGP_con_cape1000_084.txt.gz
Probability
0 0 0 0 0 0 0 0 0 0 0 13 16 23 19 13 29 23 32 48 65 74 90 90 90 97 90 81 87 94 97 90 90 84 77 61 55 45 32 23 13 13 10 6
0 0 0 0 0 0 0 0 0 0 0 13 13 16 16 23 29 35 52 55 48 68 81 90 90 87 90 81 90 97 94 94 90 77 77 65 48 42 32 23 13 13 10 10
0 0 0 0 0 0 0 0 0 0 16 23 23 16 29 23 10 26 39 42 52 58 68 81 81 81 84 94 90 87 90 90 77 68 58 55 42 39 32 26 16 19 10 10
0 0 0 0 0 0 0 0 6 19 19 19 26 19 16 16 19 26 23 23 26 32 45 55 52 58 68 68 74 61 68 68 65 55 39 32 29 23 29 23 16 23 16 10
0 0 0 0 0 0 0 3 3 13 13 16 3 13 13 10 13 16 26 26 19 19 19 39 45 45 45 52 61 58 61 65 52 42 39 35 32 26 23 23 26 16 13 10
0 0 0 0 3 6 3 3 10 13 19 10 10 19 19 16 13 19 16 16 13 13 10 16 29 39 48 45 42 32 32 32 29 26 29 29 26 29 26 29 19 6 3 6
0 0 0 0 0 0 0 16 13 16 19 13 19 42 23 13 10 13 13 13 13 16 13 13 10 13 16 16 13 13 13 10 16 13 13 13 16 19 19 6 6 6 10 10
0 0 0 6 6 6 45 52 26 19 16 26 26 16 3 0 0 6 6 6 6 10 6 6 10 6 6 3 0 0 0 0 0 0 0 0 10 13 6 6 6 6 6 6
0 0 23 16 23 45 39 45 26 19 16 26 6 3 3 0 0 0 0 3 3 0 0 0 3 3 0 0 0 0 0 0 0 0 0 0 0 0 0 0 0 0 0 0
3 3 16 13 13 19 16 23 19 19 10 10 3 3 3 0 0 0 0 0 0 0 0 0 0 0 0 0 0 0 0 0 0 0 0 0 0 0 0 0 0 0 0 3
0 10 10 6 19 19 13 10 6 10 3 10 6 6 6 3 0 0 0 0 0 0 0 0 0 0 0 0 0 0 0 0 0 0 0 0 0 0 3 3 3 0 3 0
3 13 6 23 19 13 16 6 6 10 6 3 6 6 6 3 0 0 0 0 0 0 0 0 0 0 0 0 0 0 0 0 0 0 0 0 0 0 0 0 0 0 0 0
0 0 0 0 3 3 6 3 3 6 3 3 0 0 0 0 0 0 0 0 0 0 0 0 0 0 0 0 0 0 0 0 0 0 0 0 0 0 0 0 0 0 0 0
0 0 0 0 3 6 3 3 6 3 0 0 0 0 0 0 0 0 0 0 0 0 0 0 0 0 0 0 0 0 0 0 0 0 0 0 0 0 0 0 0 0 0 0
0 0 0 0 0 0 3 3 0 0 0 0 0 0 0 0 0 0 0 0 0 0 0 0 0 0 0 0 0 0 0 0 0 0 0 0 0 0 0 0 0 0 0 0
0 0 0 0 0 3 3 0 0 0 0 0 0 0 0 0 0 0 0 0 0 0 0 0 0 0 0 0 0 0 0 0 0 0 0 0 0 0 0 0 0 0 0 0
0 0 0 0 0 0 0 0 0 0 0 0 0 0 0 0 0 0 0 0 0 0 0 0 0 0 0 0 0 0 0 0 0 0 0 0 0 0 0 0 0 0 0 0
0 0 0 0 0 0 0 0 0 0 0 0 0 0 0 0 0 0 0 0 0 0 0 0 0 0 0 0 0 0 0 0 0 0 0 0 0 0 0 0 0 0 0 0
0 0 0 0 0 0 0 0 0 0 0 0 0 0 0 0 0 0 0 0 0 0 0 0 0 0 0 0 0 0 0 0 0 0 0 0 0 0 0 0 0 0 0 0
0 0 0 0 0 0 0 0 0 0 0 0 0 0 0 0 0 0 0 0 0 0 0 0 0 0 0 0 0 0 0 0 0 0 0 0 0 0 0 0 0 0 0 0
0 0 0 0 0 0 0 0 0 0 0 0 0 0 0 0 0 0 0 0 0 0 0 0 0 0 0 0 0 0 0 0 0 0 0 0 0 0 0 0 0 0 0 0
0 0 0 0 0 0 0 0 0 0 0 0 0 0 0 0 0 0 0 0 0 0 0 0 0 0 0 0 0 0 0 0 0 0 0 0 0 0 0 0 0 0 0 0
0 0 0 0 0 0 0 0 0 0 0 0 0 0 0 0 0 0 0 0 0 0 0 0 0 0 0 0 0 0 0 0 0 0 0 0 0 0 0 0 0 0 0 0
0 0 0 0 0 0 0 0 0 0 0 0 0 0 0 0 0 0 0 0 0 0 0 0 0 0 0 0 0 0 0 0 0 0 0 0 0 0 0 0 0 0 0 0
0 0 0 0 0 0 0 0 0 0 0 0 0 0 0 0 0 0 0 0 0 0 0 0 0 0 0 0 0 0 0 0 0 0 0 0 0 0 0 0 0 0 0 0
0 0 0 0 0 0 0 0 0 0 0 0 0 0 0 0 0 0 0 0 0 0 0 0 0 0 0 0 0 0 0 0 0 0 0 0 0 0 0 0 0 0 0 0
0 0 0 0 0 0 0 0 0 0 0 0 0 0 0 0 0 0 0 0 0 0 0 0 0 0 0 0 0 0 0 0 0 0 0 0 0 0 0 0 0 0 0 0

GEFSNGP_con_cape1000_090.txt.gz
Probability
0 0 0 0 0 0 0 0 0 0 6 19 23 26 26 35 42 52 71 84 94 97 97 97 97 90 90 90 90 90 90 90 90 97 100 100 97 94 90 87 58 71 71 65
0 0 0 0 0 0 0 0 0 3 19 35 35 39 42 52 45 61 74 74 97 97 97 97 97 97 97 94 94 97 94 90 94 97 97 94 90 90 90 87 81 74 77 68
0 0 0 0 0 0 0 0 0 3 45 39 48 55 58 45 55 74 74 74 84 87 90 90 90 90 87 87 87 87 87 87 84 87 87 87 77 81 84 81 81 84 74 68
0 6 0 0 0 0 0 3 10 39 45 55 58 58 61 55 58 71 74 77 77 74 71 71 74 71 71 71 71 71 74 74 71 71 77 81 74 74 74 77 74 77 74 71
13 6 0 0 0 0 3 13 16 35 42 39 39 48 39 42 42 52 58 58 65 61 68 71 61 58 52 52 52 52 52 61 55 55 61 65 65 68 71 71 71 65 68 68
19 3 0 0 0 0 3 19 23 39 45 42 45 48 42 45 45 45 48 52 45 45 39 45 45 42 35 35 32 29 29 35 32 29 35 42 52 48 58 61 61 58 61 58
6 10 0 0 0 0 3 29 32 29 35 52 77 65 45 42 42 39 35 32 29 32 32 26 23 35 32 26 26 23 23 23 23 26 23 26 32 32 32 39 42 48 45 45
6 3 0 0 6 26 58 61 35 42 48 68 52 42 35 29 29 26 19 29 26 26 23 19 19 19 19 16 13 10 10 13 16 16 10 6 23 26 26 23 29 32 35 29
6 3 29 16 32 39 35 48 45 52 61 58 39 32 29 23 23 10 10 10 6 3 3 3 6 6 6 6 0 0 0 3 3 3 10 6 10 6 13 10 6 6 6 0
6 10 16 19 19 23 23 29 45 52 55 29 29 26 23 16 10 3 3 0 0 0 0 0 0 0 0 0 0 0 0 0 0 0 0 3 3 3 3 3 3 6 6 0
6 10 10 19 23 19 16 19 26 29 23 23 19 19 16 10 3 3 0 0 0 0 0 0 0 0 0 0 0 0 0 0 0 0 0 0 0 3 0 0 0 0 0 0
13 13 16 19 6 6 16 23 26 19 13 13 13 6 3 3 3 0 0 0 0 0 0 0 0 0 0 0 0 0 0 0 0 0 0 0 0 0 0 0 0 0 0 0
13 13 23 13 10 13 16 16 16 16 6 6 6 3 3 3 3 0 0 0 0 0 0 0 0 0 0 0 0 0 0 0 0 0 0 0 0 0 0 0 0 0 0 0
16 19 16 16 16 13 10 10 6 3 3 3 3 3 0 0 0 0 0 0 0 0 0 0 0 0 0 0 0 0 0 0 0 0 0 0 0 0 0 0 0 0 0 0
16 6 10 13 16 10 16 6 3 3 0 0 0 0 0 0 0 0 0 0 0 0 0 0 0 0 0 0 0 0 0 0 0 0 0 0 0 0 0 0 0 0 0 0
13 10 19 10 6 3 3 0 0 0 0 0 0 0 0 0 0 0 0 0 0 0 0 0 0 0 0 0 0 0 0 0 0 0 0 0 0 0 0 0 0 0 0 0
3 0 6 3 3 0 0 0 0 0 0 0 0 0 0 0 0 0 0 0 0 0 0 0 0 0 0 0 0 0 0 0 0 0 0 0 0 0 0 0 0 0 0 0
0 3 3 0 0 0 0 0 0 0 0 0 0 0 0 0 0 0 0 0 0 0 0 0 0 0 0 0 0 0 0 0 0 0 0 0 0 0 0 0 0 0 0 0
0 0 0 0 0 0 0 0 0 0 0 0 0 0 0 0 0 0 0 0 0 0 0 0 0 0 0 0 0 0 0 0 0 0 0 0 0 0 0 0 0 0 0 0
0 0 0 0 0 0 0 0 0 0 0 0 0 0 0 0 0 0 0 0 0 0 0 0 0 0 0 0 0 0 0 0 0 0 0 0 0 0 0 0 0 0 0 0
0 0 0 0 0 0 0 0 0 0 0 0 0 0 0 0 0 0 0 0 0 0 0 0 0 0 0 0 0 0 0 0 0 0 0 0 0 0 0 0 0 0 0 0
0 0 0 0 0 0 0 0 0 0 0 0 0 0 0 0 0 0 0 0 0 0 0 0 0 0 0 0 0 0 0 0 0 0 0 0 0 0 0 0 0 0 0 0
0 0 0 0 0 0 0 0 0 0 0 0 0 0 0 0 0 0 0 0 0 0 0 0 0 0 0 0 0 0 0 0 0 0 0 0 0 0 0 0 0 0 0 0
0 0 0 0 0 0 0 0 0 0 0 0 0 0 0 0 0 0 0 0 0 0 0 0 0 0 0 0 0 0 0 0 0 0 0 0 0 0 0 0 0 0 0 0
0 0 0 0 0 0 0 0 0 0 0 0 0 0 0 0 0 0 0 0 0 0 0 0 0 0 0 0 0 0 0 0 0 0 0 0 0 0 0 0 0 0 0 0
0 0 0 0 0 3 0 0 0 0 0 0 0 0 0 0 0 0 0 0 0 0 0 0 0 0 0 0 0 0 0 0 0 0 0 0 0 0 0 0 0 0 0 0
0 0 0 0 0 0 0 0 0 0 0 0 0 0 0 0 0 0 0 0 0 0 0 0 0 0 0 0 0 0 0 0 0 0 0 0 0 0 0 0 0 0 0 0

GEFSNGP_con_cape1000_096.txt.gz
Probability
0 0 0 0 0 0 0 0 0 0 3 0 0 0 0 0 3 3 3 6 10 13 13 13 13 16 26 23 29 29 29 26 26 23 19 16 13 16 16 13 16 0 0 0
0 0 0 0 0 0 0 0 0 0 0 0 0 0 0 3 3 10 10 10 6 3 3 3 6 10 13 13 16 23 23 16 19 16 19 13 13 19 23 19 16 13 3 0
0 0 0 0 0 0 0 0 0 0 3 3 0 3 6 10 13 13 16 10 0 3 3 3 3 6 10 10 6 10 13 10 13 13 19 16 19 10 16 13 10 10 6 10
0 0 0 0 0 0 0 0 0 6 3 10 10 6 3 3 6 6 6 0 3 6 6 6 6 6 6 6 6 3 3 6 13 13 13 13 13 13 6 10 10 6 6 3
0 0 0 0 0 0 0 3 6 10 10 10 13 13 13 6 6 6 3 3 6 3 3 3 3 3 3 6 3 3 3 3 6 13 16 16 19 16 3 3 3 6 3 3
0 0 0 0 0 0 3 6 6 16 10 6 6 10 13 10 6 6 0 0 0 0 0 0 0 0 0 0 0 0 3 3 6 6 6 3 3 0 0 0 0 0 0 0
0 0 0 0 0 0 0 3 3 10 6 3 6 10 10 6 0 0 0 0 0 0 0 0 0 0 0 0 0 0 0 0 0 0 0 0 0 0 0 0 0 0 0 0
0 0 0 0 0 0 0 0 3 6 6 13 10 3 0 0 0 0 0 0 0 0 0 0 0 0 0 0 0 0 0 0 0 0 0 0 0 0 0 0 0 0 0 0
0 0 0 0 0 0 0 6 10 3 3 10 6 0 0 0 0 0 0 0 0 0 0 0 0 0 0 0 0 0 0 0 0 0 0 0 0 0 0 0 0 0 0 0
0 0 0 0 0 0 6 3 3 3 6 0 0 0 0 0 0 0 0 0 0 0 0 0 0 0 0 0 0 0 0 0 0 0 0 0 0 0 0 0 0 0 0 0
0 0 0 0 0 0 3 3 3 3 0 0 0 0 0 0 0 0 0 0 0 0 0 0 0 0 0 0 0 0 0 0 0 0 0 0 0 0 0 0 0 0 0 0
0 0 0 0 0 6 6 3 0 0 0 0 0 0 0 0 0 0 0 0 0 0 0 0 0 0 0 0 0 0 0 0 0 0 0 0 0 0 0 0 0 0 0 0
0 0 0 0 0 3 3 0 0 0 0 0 0 0 0 0 0 0 0 0 0 0 0 0 0 0 0 0 0 0 0 0 0 0 0 0 0 0 0 0 0 0 0 0
0 0 0 0 3 0 0 0 0 0 0 0 0 0 0 0 0 0 0 0 0 0 0 0 0 0 0 0 0 0 0 0 0 0 0 0 0 0 0 0 0 0 0 0
0 0 0 0 0 0 0 0 0 0 0 0 0 0 0 0 0 0 0 0 0 0 0 0 0 0 0 0 0 0 0 0 0 0 0 0 0 0 0 0 0 0 0 0
0 0 0 0 0 0 0 0 0 0 0 0 0 0 0 0 0 0 0 0 0 0 0 0 0 0 0 0 0 0 0 0 0 0 0 0 0 0 0 0 0 0 0 0
0 0 0 0 0 0 0 0 0 0 0 0 0 0 0 0 0 0 0 0 0 0 0 0 0 0 0 0 0 0 0 0 0 0 0 0 0 0 0 0 0 0 0 0
0 0 0 0 0 0 0 0 0 0 0 0 0 0 0 0 0 0 0 0 0 0 0 0 0 0 0 0 0 0 0 0 0 0 0 0 0 0 0 0 0 0 0 0
0 0 0 0 0 0 0 0 0 0 0 0 0 0 0 0 0 0 0 0 0 0 0 0 0 0 0 0 0 0 0 0 0 0 0 0 0 0 0 0 0 0 0 0
0 0 0 0 0 0 0 0 0 0 0 0 0 0 0 0 0 0 0 0 0 0 0 0 0 0 0 0 0 0 0 0 0 0 0 0 0 0 0 0 0 0 0 0
0 0 0 0 0 0 0 0 0 0 0 0 0 0 0 0 0 0 0 0 0 0 0 0 0 0 0 0 0 0 0 0 0 0 0 0 0 0 0 0 0 0 0 0
0 0 0 0 0 0 0 0 0 0 0 0 0 0 0 0 0 0 0 0 0 0 0 0 0 0 0 0 0 0 0 0 0 0 0 0 0 0 0 0 0 0 0 0
0 0 0 0 0 0 0 0 0 0 0 0 0 0 0 0 0 0 0 0 0 0 0 0 0 0 0 0 0 0 0 0 0 0 0 0 0 0 0 0 0 0 0 0
0 0 0 0 0 0 0 0 0 0 0 0 0 0 0 0 0 0 0 0 0 0 0 0 0 0 0 0 0 0 0 0 0 0 0 0 0 0 0 0 0 0 0 0
0 0 0 0 0 0 0 0 0 0 0 0 0 0 0 0 0 0 0 0 0 0 0 0 0 0 0 0 0 0 0 0 0 0 0 0 0 0 0 0 0 0 0 0
0 0 0 0 0 0 0 0 0 0 0 0 0 0 0 0 0 0 0 0 0 0 0 0 0 0 0 0 0 0 0 0 0 0 0 0 0 0 0 0 0 0 0 0
0 0 0 0 0 0 0 0 0 0 0 0 0 0 0 0 0 0 0 0 0 0 0 0 0 0 0 0 0 0 0 0 0 0 0 0 0 0 0 0 0 0 0 0

GEFSNGP_con_cape1000_102.txt.gz
Probability
0 0 0 0 0 0 0 0 0 0 0 0 0 0 0 0 0 3 3 3 0 3 3 6 10 10 10 10 10 10 13 10 10 6 6 6 3 3 0 0 3 3 0 0
0 0 0 0 0 0 0 0 0 0 0 0 0 0 0 0 0 0 3 6 3 3 3 3 3 6 6 6 6 10 10 6 6 6 6 6 6 3 3 3 3 3 3 6
0 0 0 0 0 0 0 0 0 0 0 0 0 0 0 0 0 0 0 3 3 3 3 3 3 3 3 3 10 10 3 3 6 6 6 6 6 6 3 3 3 3 3 3
0 0 0 0 0 0 0 0 0 0 0 0 0 0 0 0 0 0 0 0 3 3 3 3 3 3 3 3 3 3 3 3 3 3 3 3 3 3 3 3 3 3 3 3
0 0 0 0 0 0 0 0 0 0 0 3 3 3 3 3 3 0 0 0 0 0 3 3 3 3 3 3 3 3 3 3 3 3 3 3 3 3 3 3 3 3 0 0
0 0 0 0 0 0 0 0 0 0 3 6 3 0 3 0 0 0 0 0 0 0 0 0 0 3 3 3 3 3 3 0 0 0 0 0 0 0 0 0 0 0 0 0
0 0 0 0 0 0 0 0 0 0 0 0 0 0 0 0 0 0 0 0 0 0 0 0 0 0 0 0 0 0 0 0 0 0 0 0 0 0 0 0 0 0 0 0
0 0 0 0 0 0 0 0 0 0 0 0 0 0 0 0 0 0 0 0 0 0 0 0 0 0 0 0 0 0 0 0 0 0 0 0 0 0 0 0 0 0 0 0
0 0 0 0 0 0 0 0 3 0 0 0 0 0 0 0 0 0 0 0 0 0 0 0 0 0 0 0 0 0 0 0 0 0 0 0 0 0 0 0 0 0 0 0
0 0 0 0 0 0 3 0 0 0 0 0 0 0 0 0 0 0 0 0 0 0 0 0 0 0 0 0 0 0 0 0 0 0 0 0 0 0 0 0 0 0 0 0
0 0 0 0 0 0 0 0 0 0 0 0 0 0 0 0 0 0 0 0 0 0 0 0 0 0 0 0 0 0 0 0 0 0 0 0 0 0 0 0 0 0 0 0
0 0 0 0 0 0 0 0 0 0 0 0 0 0 0 0 0 0 0 0 0 0 0 0 0 0 0 0 0 0 0 0 0 0 0 0 0 0 0 0 0 0 0 0
0 0 0 0 0 0 0 0 0 0 0 0 0 0 0 0 0 0 0 0 0 0 0 0 0 0 0 0 0 0 0 0 0 0 0 0 0 0 0 0 0 0 0 0
0 0 0 0 0 0 0 0 0 0 0 0 0 0 0 0 0 0 0 0 0 0 0 0 0 0 0 0 0 0 0 0 0 0 0 0 0 0 0 0 0 0 0 0
0 0 0 0 0 0 0 0 0 0 0 0 0 0 0 0 0 0 0 0 0 0 0 0 0 0 0 0 0 0 0 0 0 0 0 0 0 0 0 0 0 0 0 0
0 0 0 0 0 0 0 0 0 0 0 0 0 0 0 0 0 0 0 0 0 0 0 0 0 0 0 0 0 0 0 0 0 0 0 0 0 0 0 0 0 0 0 0
0 0 0 0 0 0 0 0 0 0 0 0 0 0 0 0 0 0 0 0 0 0 0 0 0 0 0 0 0 0 0 0 0 0 0 0 0 0 0 0 0 0 0 0
0 0 0 0 0 0 0 0 0 0 0 0 0 0 0 0 0 0 0 0 0 0 0 0 0 0 0 0 0 0 0 0 0 0 0 0 0 0 0 0 0 0 0 0
0 0 0 0 0 0 0 0 0 0 0 0 0 0 0 0 0 0 0 0 0 0 0 0 0 0 0 0 0 0 0 0 0 0 0 0 0 0 0 0 0 0 0 0
0 0 0 0 0 0 0 0 0 0 0 0 0 0 0 0 0 0 0 0 0 0 0 0 0 0 0 0 0 0 0 0 0 0 0 0 0 0 0 0 0 0 0 0
0 0 0 0 0 0 0 0 0 0 0 0 0 0 0 0 0 0 0 0 0 0 0 0 0 0 0 0 0 0 0 0 0 0 0 0 0 0 0 0 0 0 0 0
0 0 0 0 0 0 0 0 0 0 0 0 0 0 0 0 0 0 0 0 0 0 0 0 0 0 0 0 0 0 0 0 0 0 0 0 0 0 0 0 0 0 0 0
0 0 0 0 0 0 0 0 0 0 0 0 0 0 0 0 0 0 0 0 0 0 0 0 0 0 0 0 0 0 0 0 0 0 0 0 0 0 0 0 0 0 0 0
0 0 0 0 0 0 0 0 0 0 0 0 0 0 0 0 0 0 0 0 0 0 0 0 0 0 0 0 0 0 0 0 0 0 0 0 0 0 0 0 0 0 0 0
0 0 0 0 0 0 0 0 0 0 0 0 0 0 0 0 0 0 0 0 0 0 0 0 0 0 0 0 0 0 0 0 0 0 0 0 0 0 0 0 0 0 0 0
0 0 0 0 0 0 0 0 0 0 0 0 0 0 0 0 0 0 0 0 0 0 0 0 0 0 0 0 0 0 0 0 0 0 0 0 0 0 0 0 0 0 0 0
0 0 0 0 0 0 0 0 0 0 0 0 0 0 0 0 0 0 0 0 0 0 0 0 0 0 0 0 0 0 0 0 0 0 0 0 0 0 0 0 0 0 0 0

GEFSNGP_con_cape1000_108.txt.gz
Probability
0 0 0 0 0 0 0 0 0 0 3 10 26 29 45 55 61 55 55 58 58 55 58 58 52 55 55 58 48 48 58 58 55 55 58 48 45 42 39 39 42 45 52 42
0 0 0 0 0 0 0 0 0 3 3 13 29 39 55 52 55 61 52 52 55 52 52 55 55 55 58 55 71 65 65 61 58 58 52 52 52 42 42 48 55 48 45 35
0 0 0 0 0 0 0 0 0 3 3 26 39 58 65 65 61 55 52 42 42 45 55 52 52 45 58 55 52 45 48 42 45 45 45 35 32 35 32 35 45 42 42 35
0 0 0 3 6 0 0 3 3 6 23 32 58 71 65 45 52 48 45 45 42 42 45 48 45 39 48 52 45 39 39 35 42 45 32 29 29 32 32 32 32 35 23 19
3 0 0 0 0 0 6 6 6 10 23 48 68 55 45 39 42 42 42 42 39 42 35 42 39 39 42 39 32 32 29 29 29 29 29 26 23 13 16 23 23 23 19 13
0 0 0 0 0 3 10 6 3 13 39 45 52 45 32 19 19 29 26 29 26 29 29 32 35 32 26 23 23 19 16 13 13 16 16 13 16 16 16 19 13 13 10 6
0 0 0 3 3 3 0 3 10 26 42 39 48 35 32 16 13 16 19 19 23 16 19 19 29 29 16 16 16 16 16 13 13 13 13 13 13 13 13 10 10 3 3 3
0 0 0 3 3 3 16 29 32 32 39 32 42 26 16 10 10 6 13 10 10 10 10 13 13 10 6 3 6 6 10 6 3 6 6 6 6 10 6 6 3 3 0 0
0 0 3 3 6 13 19 26 26 35 32 32 23 16 10 3 0 0 0 3 3 3 3 3 3 3 0 0 0 0 0 0 0 0 0 0 0 3 0 0 0 0 0 0
0 0 3 3 6 10 16 19 26 26 35 23 16 6 0 0 0 0 0 0 0 0 0 0 0 0 0 0 0 0 0 0 0 0 0 0 0 0 0 0 0 0 0 0
0 0 3 3 6 6 23 19 23 23 16 13 6 3 0 0 0 0 0 0 0 0 0 0 0 0 0 0 0 0 0 0 0 0 0 0 0 0 0 0 0 0 0 0
0 0 3 6 10 3 6 10 10 10 10 3 3 0 0 0 0 0 0 0 0 0 0 0 0 0 0 0 0 0 0 0 0 0 0 0 0 0 0 0 0 0 0 0
3 0 0 0 0 0 3 6 6 3 3 0 0 0 0 0 0 0 0 0 0 0 0 0 0 0 0 0 0 0 0 0 0 0 0 0 0 0 0 0 0 0 0 0
0 0 0 0 0 0 0 3 3 0 0 0 0 0 0 0 0 0 0 0 0 0 0 0 0 0 0 0 0 0 0 0 0 0 0 0 0 0 0 0 0 0 0 0
0 0 0 0 0 0 0 0 0 0 0 0 0 0 0 0 0 0 0 0 0 0 0 0 0 0 0 0 0 0 0 0 0 0 0 0 0 0 0 0 0 0 0 0
0 0 0 0 0 0 0 0 0 0 0 0 0 0 0 0 0 0 0 0 0 0 0 0 0 0 0 0 0 0 0 0 0 0 0 0 0 0 0 0 0 0 0 0
0 0 0 0 0 0 0 0 0 0 0 0 0 0 0 0 0 0 0 0 0 0 0 0 0 0 0 0 0 0 0 0 0 0 0 0 0 0 0 0 0 0 0 0
0 0 0 0 0 0 0 0 0 0 0 0 0 0 0 0 0 0 0 0 0 0 0 0 0 0 0 0 0 0 0 0 0 0 0 0 0 0 0 0 0 0 0 0
0 0 0 0 0 0 0 0 0 0 0 0 0 0 0 0 0 0 0 0 0 0 0 0 0 0 0 0 0 0 0 0 0 0 0 0 0 0 0 0 0 0 0 0
0 0 0 0 0 0 0 0 0 0 0 0 0 0 0 0 0 0 0 0 0 0 0 0 0 0 0 0 0 0 0 0 0 0 0 0 0 0 0 0 0 0 0 0
0 0 0 0 0 0 0 0 0 0 0 0 0 0 0 0 0 0 0 0 0 0 0 0 0 0 0 0 0 0 0 0 0 0 0 0 0 0 0 0 0 0 0 0
0 0 0 0 0 0 0 0 0 0 0 0 0 0 0 0 0 0 0 0 0 0 0 0 0 0 0 0 0 0 0 0 0 0 0 0 0 0 0 0 0 0 0 0
0 0 0 0 0 0 0 0 0 0 0 0 0 0 0 0 0 0 0 0 0 0 0 0 0 0 0 0 0 0 0 0 0 0 0 0 0 0 0 0 0 0 0 0
0 0 0 0 0 0 0 0 0 0 0 0 0 0 0 0 0 0 0 0 0 0 0 0 0 0 0 0 0 0 0 0 0 0 0 0 0 0 0 0 0 0 0 0
0 0 0 0 0 0 0 0 0 0 0 0 0 0 0 0 0 0 0 0 0 0 0 0 0 0 0 0 0 0 0 0 0 0 0 0 0 0 0 0 0 0 0 0
0 0 0 0 0 0 0 0 0 0 0 0 0 0 0 0 0 0 0 0 0 0 0 0 0 0 0 0 0 0 0 0 0 0 0 0 0 0 0 0 0 0 0 0
0 0 0 0 0 0 0 0 0 0 0 0 0 0 0 0 0 0 0 0 0 0 0 0 0 0 0 0 0 0 0 0 0 0 0 0 0 0 0 0 0 0 0 0

GEFSNGP_con_cape1000_114.txt.gz
Probability
0 0 0 0 0 0 0 0 0 0 6 6 19 29 32 48 61 61 87 81 81 81 81 84 74 74 77 65 65 61 61 61 55 52 52 45 42 45 45 52 42 55 55 58
0 0 0 0 0 0 0 0 0 3 3 6 23 29 35 55 58 71 81 74 74 77 74 74 74 74 77 65 68 74 65 55 55 48 45 42 35 32 39 52 48 52 39 32
0 0 0 0 0 0 0 0 0 6 6 16 29 39 52 52 61 74 71 77 74 65 65 61 61 68 71 74 74 71 71 58 55 52 45 45 32 32 26 39 32 39 23 19
0 0 0 0 0 0 0 0 10 16 23 32 52 61 65 74 68 68 68 68 58 61 61 61 65 71 74 68 65 55 55 55 45 45 35 29 23 29 29 29 23 19 16 13
3 0 0 0 0 0 3 3 13 13 26 19 58 61 58 65 58 61 52 55 55 52 55 58 61 58 52 48 52 52 42 39 32 35 29 23 23 23 16 16 13 10 10 6
3 0 0 0 0 0 0 6 19 29 32 35 48 55 58 52 42 45 39 45 48 48 45 45 42 35 35 35 35 32 26 26 26 26 23 19 13 10 6 6 6 6 6 6
3 3 0 0 0 0 3 16 32 48 55 55 61 61 45 39 35 32 32 35 35 35 35 35 35 32 32 29 29 26 26 26 19 19 19 16 16 13 10 6 10 6 3 0
3 0 0 0 0 3 16 29 29 35 45 42 52 45 35 29 32 29 32 29 32 29 29 29 29 26 26 23 23 23 16 13 13 13 10 10 13 13 10 6 6 3 0 0
0 3 10 3 6 10 13 16 19 32 19 26 23 29 26 23 23 19 26 26 26 29 26 23 26 23 19 19 16 13 10 10 10 6 6 6 6 6 6 6 3 3 0 0
0 0 0 0 3 10 13 19 19 23 19 19 16 19 23 19 16 13 13 13 10 10 10 10 10 10 10 6 6 6 6 6 3 3 3 0 0 0 3 0 6 3 3 0
0 0 0 3 3 6 10 10 13 10 16 19 19 16 16 13 10 6 3 3 3 0 0 0 0 3 3 6 6 3 3 0 0 0 0 0 0 0 0 0 0 0 0 0
0 0 3 3 6 6 6 3 6 10 10 13 13 6 13 10 6 6 6 3 0 0 0 0 0 0 0 0 0 0 0 0 0 0 0 0 0 0 0 0 0 0 0 0
0 0 3 6 0 0 0 6 6 6 3 6 10 6 3 3 3 0 0 0 0 0 0 0 0 0 0 0 0 0 0 0 0 0 0 0 0 0 0 0 0 0 0 0
0 0 0 0 0 0 0 3 3 3 3 6 0 0 0 0 0 0 0 0 0 0 0 0 0 0 0 0 0 0 0 0 0 0 0 0 0 0 0 0 0 0 0 0
0 0 0 0 0 3 0 0 0 0 3 3 0 0 0 0 0 0 0 0 0 0 0 0 0 0 0 0 0 0 0 0 0 0 0 0 0 0 0 0 0 0 0 0
0 0 0 0 0 0 0 0 0 0 0 0 0 0 0 0 0 0 0 0 0 0 0 0 0 0 0 0 0 0 0 0 0 0 0 0 0 0 0 0 0 0 0 0
0 0 0 0 0 0 0 0 0 0 0 0 0 0 0 0 0 0 0 0 0 0 0 0 0 0 0 0 0 0 0 0 0 0 0 0 0 0 0 0 0 0 0 0
0 0 0 0 0 0 0 0 0 0 0 0 0 0 0 0 0 0 0 0 0 0 0 0 0 0 0 0 0 0 0 0 0 0 0 0 0 0 0 0 0 0 0 0
0 0 3 3 0 0 0 0 0 0 0 0 0 0 0 0 0 0 0 0 0 0 0 0 0 0 0 0 0 0 0 0 0 0 0 0 0 0 0 0 0 0 0 0
3 0 0 0 3 0 0 0 0 0 0 0 0 0 0 0 0 0 0 0 0 0 0 0 0 0 0 0 0 0 0 0 0 0 0 0 0 0 0 0 0 0 0 0
6 0 0 0 0 0 0 0 0 0 0 0 0 0 0 0 0 0 0 0 0 0 0 0 0 0 0 0 0 0 0 0 0 0 0 0 0 0 0 0 0 0 0 0
3 0 0 0 0 0 0 0 0 0 0 0 0 0 0 0 0 0 0 0 0 0 0 0 0 0 0 0 0 0 0 0 0 0 0 0 0 0 0 0 0 0 0 0
3 0 0 0 0 0 0 0 0 0 0 0 0 0 0 0 0 0 0 0 0 0 0 0 0 0 0 0 0 0 0 0 0 0 0 0 0 0 0 0 0 0 0 0
0 0 0 0 0 0 0 0 0 0 0 0 0 0 0 0 0 0 0 0 0 0 0 0 0 0 0 0 0 0 0 0 0 0 0 0 0 0 0 0 0 0 0 0
0 0 0 0 0 0 0 0 0 0 0 0 0 0 0 0 0 0 0 0 0 0 0 0 0 0 0 0 0 0 0 0 0 0 0 0 0 0 0 0 0 0 0 0
0 0 0 0 0 0 0 0 0 0 0 0 0 0 0 0 0 0 0 0 0 0 0 0 0 0 0 0 0 0 0 0 0 0 0 0 0 0 0 0 0 0 0 0
0 0 0 0 0 0 0 0 0 0 0 0 0 0 0 0 0 0 0 0 0 0 0 0 0 0 0 0 0 0 0 0 0 0 0 0 0 0 0 0 0 0 0 0

GEFSNGP_con_cape1000_120.txt.gz
Probability
0 0 0 0 0 0 0 0 0 0 3 3 10 3 6 10 13 13 19 16 16 10 0 6 13 13 10 16 19 23 32 29 23 23 19 16 13 3 3 0 3 0 0 0
0 0 0 0 0 0 0 0 0 0 0 0 0 3 6 26 26 23 23 16 13 13 6 10 13 13 13 13 23 26 26 26 19 16 16 13 6 6 6 6 3 0 0 0
0 0 0 0 0 0 0 0 0 0 3 6 3 19 19 16 23 23 26 19 19 23 13 16 16 10 13 13 19 19 19 16 13 13 10 10 6 10 6 6 0 0 0 0
0 0 0 0 0 0 0 0 3 3 6 10 10 10 16 16 19 10 13 19 19 16 23 16 6 6 3 10 6 13 13 13 13 10 10 10 6 10 3 0 0 0 0 0
0 0 0 0 0 0 0 0 3 0 3 6 13 13 10 19 13 13 6 10 10 16 23 19 13 6 6 10 10 10 13 13 10 10 10 6 6 0 0 0 0 0 0 0
0 0 0 0 0 0 0 0 0 6 3 0 16 13 16 13 6 13 13 6 10 13 19 13 13 13 13 13 10 10 10 10 10 3 3 3 0 0 0 0 0 0 0 0
0 0 0 0 0 0 0 0 3 10 3 3 6 10 13 13 13 16 13 10 10 13 13 13 10 13 13 13 6 6 3 3 3 0 0 0 0 0 0 0 0 0 0 0
0 0 0 0 0 0 0 0 3 3 6 6 6 6 13 13 6 10 13 13 10 10 13 6 6 10 6 3 3 3 0 0 0 0 0 0 0 0 0 0 0 0 0 0
0 0 0 0 0 0 0 0 0 0 3 6 6 6 6 6 6 6 10 10 6 10 6 3 3 3 3 3 3 0 0 0 0 0 0 0 0 0 0 0 0 0 0 0
0 0 0 0 0 0 0 0 0 0 0 0 6 0 0 0 0 3 3 3 3 3 3 0 0 0 3 0 0 0 0 0 0 0 0 0 0 0 0 0 0 0 0 0
0 0 0 0 0 0 0 0 0 0 0 0 0 0 0 0 0 0 0 0 0 0 0 0 0 0 0 0 0 0 0 0 0 0 0 0 0 0 0 0 0 0 0 0
0 0 0 0 0 0 0 0 0 3 3 3 0 0 0 0 0 0 0 0 0 0 0 0 0 0 0 0 0 0 0 0 0 0 0 0 0 0 0 0 0 0 0 0
0 0 0 0 0 0 0 0 0 0 0 0 0 0 0 0 0 0 0 0 0 0 0 0 0 0 0 0 0 0 0 0 0 0 0 0 0 0 0 0 0 0 0 0
0 0 0 0 0 0 0 0 0 0 0 0 0 0 0 0 0 0 0 0 0 0 0 0 0 0 0 0 0 0 0 0 0 0 0 0 0 0 0 0 0 0 0 0
0 0 0 0 0 0 0 0 0 0 0 0 0 0 0 0 0 0 0 0 0 0 0 0 0 0 0 0 0 0 0 0 0 0 0 0 0 0 0 0 0 0 0 0
0 0 0 0 0 0 0 0 0 0 0 0 0 0 0 0 0 0 0 0 0 0 0 0 0 0 0 0 0 0 0 0 0 0 0 0 0 0 0 0 0 0 0 0
0 0 0 0 0 0 0 0 0 0 0 0 0 0 0 0 0 0 0 0 0 0 0 0 0 0 0 0 0 0 0 0 0 0 0 0 0 0 0 0 0 0 0 0
0 0 0 0 0 0 0 0 0 0 0 0 0 0 0 0 0 0 0 0 0 0 0 0 0 0 0 0 0 0 0 0 0 0 0 0 0 0 0 0 0 0 0 0
0 0 0 0 0 0 0 0 0 0 0 0 0 0 0 0 0 0 0 0 0 0 0 0 0 0 0 0 0 0 0 0 0 0 0 0 0 0 0 0 0 0 0 0
0 0 0 0 0 0 0 0 0 0 0 0 0 0 0 0 0 0 0 0 0 0 0 0 0 0 0 0 0 0 0 0 0 0 0 0 0 0 0 0 0 0 0 0
0 0 0 0 0 0 0 0 0 0 0 0 0 0 0 0 0 0 0 0 0 0 0 0 0 0 0 0 0 0 0 0 0 0 0 0 0 0 0 0 0 0 0 0
0 0 0 0 0 0 0 0 0 0 0 0 0 0 0 0 0 0 0 0 0 0 0 0 0 0 0 0 0 0 0 0 0 0 0 0 0 0 0 0 0 0 0 0
0 0 0 0 0 0 0 0 0 0 0 0 0 0 0 0 0 0 0 0 0 0 0 0 0 0 0 0 0 0 0 0 0 0 0 0 0 0 0 0 0 0 0 0
0 0 0 0 0 0 0 0 0 0 0 0 0 0 0 0 0 0 0 0 0 0 0 0 0 0 0 0 0 0 0 0 0 0 0 0 0 0 0 0 0 0 0 0
0 0 0 0 0 0 0 0 0 0 0 0 0 0 0 0 0 0 0 0 0 0 0 0 0 0 0 0 0 0 0 0 0 0 0 0 0 0 0 0 0 0 0 0
0 0 0 0 0 0 0 0 0 0 0 0 0 0 0 0 0 0 0 0 0 0 0 0 0 0 0 0 0 0 0 0 0 0 0 0 0 0 0 0 0 0 0 0
0 0 0 0 0 0 0 0 0 0 0 0 0 0 0 0 0 0 0 0 0 0 0 0 0 0 0 0 0 0 0 0 0 0 0 0 0 0 0 0 0 0 0 0

GEFSNGP_con_cape1000_126.txt.gz
Probability
0 0 0 0 0 0 0 0 0 0 0 0 0 0 0 3 10 13 10 10 10 10 10 10 10 3 3 6 6 10 13 6 10 6 3 0 0 0 0 0 0 0 0 0
0 0 0 0 0 0 0 0 0 0 0 0 0 0 3 3 13 13 13 10 10 13 10 10 3 3 0 0 6 10 10 10 10 3 3 0 3 3 0 0 0 0 0 0
0 0 0 0 0 0 0 0 0 0 0 0 0 6 6 6 3 10 6 10 10 10 6 6 0 0 3 3 3 10 6 6 6 3 3 0 3 3 0 0 0 0 0 0
0 0 0 0 0 0 0 0 0 0 0 6 6 0 0 0 0 3 6 10 6 3 0 0 0 0 0 0 0 3 3 3 6 3 3 0 0 0 0 0 0 0 0 0
0 0 0 0 0 0 0 0 0 0 3 3 0 0 3 3 0 3 3 0 0 0 0 0 0 0 0 0 0 0 3 6 6 3 3 0 0 0 0 0 0 0 0 0
0 0 0 0 0 0 0 0 0 0 0 0 0 0 3 0 0 0 3 0 0 0 3 3 0 0 0 0 3 3 3 3 3 3 3 0 0 0 0 0 0 0 0 0
0 0 0 0 0 0 0 0 0 0 0 0 0 0 0 0 0 0 3 0 3 3 3 0 0 0 0 0 0 0 3 3 3 3 0 0 0 0 0 0 0 0 0 0
0 0 0 0 0 0 0 0 0 0 0 0 0 0 0 0 0 0 0 3 6 6 6 6 0 0 0 0 0 3 3 3 3 0 0 0 0 0 0 0 0 0 0 0
0 0 0 0 0 0 0 0 0 3 3 3 3 0 0 0 0 0 3 6 6 3 3 3 0 0 3 3 3 3 3 0 0 0 0 0 0 0 0 0 0 0 0 0
0 0 0 0 0 0 0 0 0 0 0 0 3 0 0 3 0 0 3 3 6 3 0 0 0 0 0 3 3 3 3 0 0 0 0 0 0 0 0 0 0 0 0 0
0 0 0 0 0 0 0 0 0 0 0 0 0 0 0 0 0 0 0 0 6 6 0 0 0 0 0 0 0 0 0 0 0 0 0 0 0 0 0 0 0 0 0 0
0 0 0 0 0 0 0 0 0 0 0 0 0 0 0 0 0 0 0 0 0 0 0 0 0 0 0 0 0 0 0 0 0 0 0 0 0 0 0 0 0 0 0 0
0 0 0 0 0 0 0 0 0 0 0 0 0 0 0 0 0 0 0 0 0 0 0 0 0 0 0 0 0 0 0 0 0 0 0 0 0 0 0 0 0 0 0 0
0 0 0 0 0 0 0 0 0 0 0 0 0 0 0 0 0 0 0 0 0 0 0 0 0 0 0 0 0 0 0 0 0 0 0 0 0 0 0 0 0 0 0 0
0 0 0 0 0 0 0 0 0 0 0 0 0 0 0 0 0 0 0 0 0 0 0 0 0 0 0 0 0 0 0 0 0 0 0 0 0 0 0 0 0 0 0 0
0 0 0 0 0 0 0 0 0 0 0 0 0 0 0 0 0 0 0 0 0 0 0 0 0 0 0 0 0 0 0 0 0 0 0 0 0 0 0 0 0 0 0 0
0 0 0 0 0 0 0 0 0 0 0 0 0 0 0 0 0 0 0 0 0 0 0 0 0 0 0 0 0 0 0 0 0 0 0 0 0 0 0 0 0 0 0 0
0 0 0 0 0 0 0 0 0 0 0 0 0 0 0 0 0 0 0 0 0 0 0 0 0 0 0 0 0 0 0 0 0 0 0 0 0 0 0 0 0 0 0 0
0 0 0 0 0 0 0 0 0 0 0 0 0 0 0 0 0 0 0 0 0 0 0 0 0 0 0 0 0 0 0 0 0 0 0 0 0 0 0 0 0 0 0 0
0 0 0 0 0 0 0 0 0 0 0 0 0 0 0 0 0 0 0 0 0 0 0 0 0 0 0 0 0 0 0 0 0 0 0 0 0 0 0 0 0 0 0 0
0 0 0 0 0 0 0 0 0 0 0 0 0 0 0 0 0 0 0 0 0 0 0 0 0 0 0 0 0 0 0 0 0 0 0 0 0 0 0 0 0 0 0 0
0 0 0 0 0 0 0 0 0 0 0 0 0 0 0 0 0 0 0 0 0 0 0 0 0 0 0 0 0 0 0 0 0 0 0 0 0 0 0 0 0 0 0 0
0 0 0 0 0 0 0 0 0 0 0 0 0 0 0 0 0 0 0 0 0 0 0 0 0 0 0 0 0 0 0 0 0 0 0 0 0 0 0 0 0 0 0 0
0 0 0 0 0 0 0 0 0 0 0 0 0 0 0 0 0 0 0 0 0 0 0 0 0 0 0 0 0 0 0 0 0 0 0 0 0 0 0 0 0 0 0 0
0 0 0 0 0 0 0 0 0 0 0 0 0 0 0 0 0 0 0 0 0 0 0 0 0 0 0 0 0 0 0 0 0 0 0 0 0 0 0 0 0 0 0 0
0 0 0 0 0 0 0 0 0 0 0 0 0 0 0 0 0 0 0 0 0 0 0 0 0 0 0 0 0 0 0 0 0 0 0 0 0 0 0 0 0 0 0 0
0 0 0 0 0 0 0 0 0 0 0 0 0 0 0 0 0 0 0 0 0 0 0 0 0 0 0 0 0 0 0 0 0 0 0 0 0 0 0 0 0 0 0 0

GEFSNGP_con_cape1000_132.txt.gz
Probability
0 0 0 0 0 0 0 0 0 3 10 23 48 48 68 74 77 74 81 81 77 84 84 81 71 68 58 55 45 42 48 52 55 55 55 42 42 39 35 35 29 35 29 23
0 0 0 0 0 0 0 0 0 3 10 23 42 58 68 74 74 74 77 71 77 74 84 84 77 65 61 61 52 52 48 48 48 48 42 42 39 32 29 29 29 29 23 23
0 0 0 3 3 3 3 6 3 3 16 35 48 68 77 65 68 71 74 74 74 77 81 84 74 65 58 55 42 35 39 45 39 42 39 35 23 26 23 23 19 19 19 16
0 0 0 3 3 3 3 6 6 26 29 39 52 58 65 68 65 65 58 61 68 68 71 65 61 55 71 58 48 42 42 42 39 32 29 23 23 19 23 23 16 16 13 13
0 0 0 0 10 6 10 16 13 26 42 42 48 45 39 42 42 55 48 48 65 61 58 58 55 55 45 48 39 39 35 32 23 23 23 16 16 16 13 13 13 13 10 6
0 0 0 0 13 6 16 19 26 29 35 42 45 39 35 42 39 35 39 48 55 48 45 45 52 45 39 32 35 39 32 26 19 19 16 13 10 10 13 10 6 6 6 6
0 0 0 0 3 3 3 13 19 23 42 42 48 45 45 32 29 32 35 35 42 45 39 39 42 45 39 39 29 29 23 19 16 16 13 13 6 6 6 6 6 3 0 0
0 0 0 0 6 6 16 32 26 26 35 45 42 39 32 29 23 32 32 29 35 42 35 39 39 42 35 32 26 23 16 13 10 10 3 3 3 3 3 3 0 0 0 0
0 0 3 6 10 10 13 19 19 19 19 26 26 26 19 19 19 16 23 26 32 39 35 32 35 32 26 23 19 13 13 6 6 6 6 3 3 0 0 0 0 0 0 0
3 0 6 6 3 10 10 16 13 16 16 16 19 10 13 16 13 16 13 23 23 23 23 16 19 26 26 16 13 10 10 6 6 6 3 0 0 0 0 0 0 0 0 0
3 10 6 10 10 6 10 13 10 16 10 13 10 3 6 6 10 13 19 13 19 19 10 10 10 6 6 6 10 10 6 6 3 3 0 0 0 0 0 0 0 0 0 0
0 10 10 6 6 6 10 10 6 10 3 6 3 3 3 3 6 6 13 10 6 6 3 3 3 3 3 6 6 6 3 3 0 0 0 0 0 0 0 0 0 0 0 0
6 6 6 6 6 6 6 6 3 3 3 6 3 0 0 0 0 3 6 6 6 6 3 3 3 3 3 3 3 3 0 0 0 0 0 0 0 0 0 0 0 0 0 0
3 6 6 3 3 0 0 0 3 3 3 3 3 0 0 0 0 3 0 3 3 3 3 3 3 3 3 3 0 0 0 0 0 0 0 0 0 0 0 0 0 0 0 0
6 3 3 0 0 0 0 0 3 3 0 0 0 0 0 0 0 0 0 3 6 3 3 3 3 0 0 0 0 0 0 0 0 0 0 0 0 0 0 0 0 0 0 0
0 0 0 0 0 0 0 0 3 0 0 0 0 0 0 0 0 0 0 3 3 3 0 0 0 0 0 0 0 0 0 0 0 0 0 0 0 0 0 0 0 0 0 0
0 0 0 3 0 0 0 0 0 0 0 0 0 0 0 0 0 0 0 0 3 0 0 0 0 0 0 0 0 0 0 0 0 0 0 0 0 0 0 0 0 0 0 0
0 0 3 0 0 0 0 0 3 0 0 0 0 0 0 0 0 0 0 0 0 0 0 0 0 0 0 0 0 0 0 0 0 0 0 0 0 0 0 0 0 0 0 0
0 0 0 0 0 0 0 0 3 0 0 0 0 0 0 0 0 0 0 0 0 0 0 0 0 0 0 0 0 0 0 0 0 0 0 0 0 0 0 0 0 0 0 0
0 0 0 0 0 0 0 0 0 0 0 0 0 0 0 0 0 0 0 0 0 0 0 0 0 0 0 0 0 0 0 0 0 0 0 0 0 0 0 0 0 0 0 0
0 0 0 0 0 0 0 0 0 0 0 0 0 0 0 0 0 0 0 0 0 0 0 0 0 0 0 0 0 0 0 0 0 0 0 0 0 0 0 0 0 0 0 0
0 0 0 0 0 0 0 0 0 0 0 0 0 0 0 0 0 0 0 0 0 0 0 0 0 0 0 0 0 0 0 0 0 0 0 0 0 0 0 0 0 0 0 0
0 0 0 0 0 0 0 0 0 0 0 0 0 0 0 0 0 0 0 0 0 0 0 0 0 0 0 0 0 0 0 0 0 0 0 0 0 0 0 0 0 0 0 0
0 0 0 0 0 0 0 0 0 0 0 0 0 0 0 0 0 0 0 0 0 0 0 0 0 0 0 0 0 0 0 0 0 0 0 0 0 0 0 0 0 0 0 0
0 0 0 0 0 0 0 0 0 0 0 0 0 0 0 0 0 0 0 0 0 0 0 0 0 0 0 0 0 0 0 0 0 0 0 0 0 0 0 0 0 0 0 0
0 0 0 0 0 0 0 0 0 0 0 0 0 0 0 0 0 0 0 0 0 0 0 0 0 0 0 0 0 0 0 0 0 0 0 0 0 0 0 0 0 0 0 0
0 0 0 0 0 0 0 0 0 0 0 0 0 0 0 0 0 0 0 0 0 0 0 0 0 0 0 0 0 0 0 0 0 0 0 0 0 0 0 0 0 0 0 0

GEFSNGP_con_cape1000_138.txt.gz
Probability
0 0 0 0 0 0 0 0 0 0 0 16 23 42 61 65 74 77 81 81 84 87 87 81 81 74 71 74 77 81 81 74 68 68 65 65 55 48 45 39 39 39 32 29
0 0 0 0 0 0 0 0 0 0 6 16 29 45 65 71 74 74 87 84 77 84 87 84 81 77 81 74 71 74 68 68 61 58 52 52 42 39 39 35 35 32 23 19
0 0 0 0 0 0 0 0 0 0 3 19 35 52 61 71 74 74 77 81 84 84 87 84 81 84 84 74 71 71 68 58 52 45 39 35 35 39 32 29 23 19 19 19
0 0 0 0 0 3 6 0 3 10 26 35 42 55 65 68 81 77 81 77 87 81 77 84 84 84 74 77 65 61 52 48 42 35 32 32 32 29 26 26 19 19 16 16
0 0 0 0 0 0 6 13 19 26 35 42 45 52 61 58 71 74 74 81 81 84 84 84 81 77 71 68 58 45 48 42 32 32 32 32 26 23 19 19 16 16 16 13
0 0 0 0 0 0 0 13 26 35 52 52 45 55 61 58 58 52 58 61 68 68 71 77 74 71 61 58 55 52 52 39 32 32 29 19 19 19 16 13 10 10 10 10
0 0 0 0 0 3 3 19 35 35 48 52 65 68 65 58 48 48 52 55 48 52 58 61 61 58 52 48 39 42 42 35 29 29 23 19 16 16 16 10 3 3 6 6
0 0 0 0 0 10 42 52 39 45 42 52 58 48 45 45 42 39 39 42 39 45 48 52 52 52 45 39 39 35 32 29 26 16 16 13 13 10 6 3 3 3 3 3
0 0 29 26 35 32 32 35 39 39 42 45 39 32 35 29 35 29 26 35 32 39 42 42 48 45 39 39 32 29 26 19 13 10 6 6 6 3 3 3 3 0 0 0
16 23 23 23 19 19 16 23 32 32 35 39 35 29 26 23 29 29 26 26 29 39 42 32 26 23 29 23 19 19 16 16 10 10 6 3 3 3 0 0 0 0 0 0
10 19 19 19 23 16 10 13 26 29 26 29 29 32 23 19 19 23 23 26 23 32 26 16 16 16 16 19 16 13 10 6 6 3 0 0 0 0 0 0 0 0 0 0
3 13 16 19 13 10 13 19 16 16 19 26 29 23 19 13 13 16 16 23 29 26 19 19 16 16 16 13 10 10 6 6 3 0 0 0 0 0 0 0 0 0 0 0
6 6 10 6 6 6 3 16 13 13 13 19 23 19 16 13 10 10 6 13 16 19 19 16 16 13 10 10 10 6 3 0 0 0 0 0 0 0 0 0 0 0 0 0
3 10 6 3 3 3 6 0 0 3 6 10 16 13 6 10 10 6 0 3 3 10 10 13 10 10 10 6 6 3 0 0 0 0 0 0 0 0 0 0 0 0 0 0
0 3 3 3 0 0 0 0 3 6 10 10 10 6 3 6 3 3 0 3 0 6 10 6 6 6 3 3 3 0 0 0 0 0 0 0 0 0 0 0 0 0 0 0
0 0 0 0 0 0 0 0 3 3 3 6 6 3 3 3 3 3 0 3 3 3 3 3 0 0 0 0 0 0 0 0 0 0 0 0 0 0 0 0 0 0 0 0
0 0 0 0 0 0 0 0 3 3 3 6 6 3 0 3 0 0 0 3 3 3 3 3 0 0 0 0 0 0 0 0 0 0 0 0 0 0 0 0 0 0 0 0
0 0 0 0 0 0 0 0 3 3 6 6 3 3 0 0 0 0 0 0 0 0 0 0 0 0 0 0 0 0 0 0 0 0 0 0 0 0 0 0 0 0 0 0
0 3 0 0 0 0 0 3 3 0 6 3 3 0 0 0 0 0 0 0 0 0 3 0 0 0 0 0 0 0 0 0 0 0 0 0 0 0 0 0 0 0 0 0
3 3 0 0 0 0 0 0 6 6 0 0 0 0 0 0 0 0 0 0 0 0 0 0 0 0 0 0 0 0 0 0 0 0 0 0 0 0 0 0 0 0 0 0
0 0 0 0 0 0 3 3 3 3 0 0 0 0 0 0 0 0 0 0 0 0 0 0 0 0 0 0 0 0 0 0 0 0 0 0 0 0 0 0 0 0 0 0
0 0 0 0 0 0 0 3 0 0 0 0 0 0 0 0 0 0 0 0 0 0 0 0 0 0 0 0 0 0 0 0 0 0 0 0 0 0 0 0 0 0 0 0
0 0 0 0 0 0 0 0 0 0 0 0 0 0 0 0 0 0 0 0 0 0 0 0 0 0 0 0 0 0 0 0 0 0 0 0 0 0 0 0 0 0 0 0
0 0 0 0 0 0 0 0 0 0 0 0 0 0 0 0 0 0 0 0 0 0 0 0 0 0 0 0 0 0 0 0 0 0 0 0 0 0 0 0 0 0 0 0
0 0 0 0 0 0 0 0 0 0 0 0 0 0 0 0 0 0 0 0 0 0 0 0 0 0 0 0 0 0 0 0 0 0 0 0 0 0 0 0 0 0 0 0
0 0 0 0 0 0 0 0 0 0 0 0 0 0 0 0 0 0 0 0 0 0 0 0 0 0 0 0 0 0 0 0 0 0 0 0 0 0 0 0 0 0 0 0
0 0 3 0 0 0 0 0 0 0 0 0 0 0 0 0 0 0 0 0 0 0 0 0 0 0 0 0 0 0 0 0 0 0 0 0 0 0 0 0 0 0 0 0

GEFSNGP_con_cape1000_144.txt.gz
Probability
0 0 0 0 0 0 0 0 0 0 0 6 16 16 16 16 29 35 32 39 35 42 42 39 29 29 35 35 32 29 32 19 19 19 13 6 6 6 6 10 10 6 3 0
0 0 0 0 0 0 0 0 0 0 0 6 6 23 29 29 45 42 42 42 42 42 42 35 35 39 32 29 29 29 23 19 19 19 13 10 10 6 6 6 6 6 6 6
0 0 0 0 0 0 3 6 0 0 0 6 19 32 39 42 48 39 42 42 42 42 42 39 39 39 29 29 29 23 23 19 19 13 16 6 6 6 3 3 3 6 6 6
0 0 0 0 0 0 3 3 6 6 13 13 16 23 29 35 39 32 35 42 42 42 35 35 29 32 26 26 26 23 19 19 23 23 16 10 6 6 3 3 3 3 3 3
0 0 0 0 0 0 3 6 10 10 23 19 19 16 19 23 16 16 23 29 32 32 29 23 23 23 23 19 13 16 13 16 16 13 6 6 6 6 6 6 6 6 3 0
0 0 0 0 0 0 0 3 13 23 19 19 6 10 23 23 16 13 13 26 29 39 19 23 19 19 23 19 16 16 16 19 13 6 6 3 3 3 3 3 3 3 3 3
0 0 0 3 3 0 0 3 16 23 19 6 3 3 13 16 16 19 23 26 29 19 19 16 10 16 16 13 10 10 10 10 6 6 3 3 3 3 3 3 3 3 3 3
0 0 0 0 10 3 3 3 13 16 10 10 13 19 16 13 13 13 13 23 19 13 13 16 13 13 13 10 10 10 10 6 10 6 6 3 3 3 3 3 3 3 3 3
0 0 0 0 0 0 0 0 6 6 10 16 19 16 6 6 3 10 6 6 16 10 10 10 6 6 6 10 10 10 6 3 3 3 3 3 3 3 3 3 3 3 3 0
0 0 0 0 0 3 3 6 3 13 19 19 16 10 6 3 3 6 10 10 6 6 6 6 6 3 6 6 10 6 3 3 3 3 3 3 3 3 3 3 3 3 3 0
0 0 0 0 3 3 6 10 10 13 16 16 10 6 6 6 6 6 10 10 10 10 6 6 6 6 3 3 3 3 3 3 3 3 3 3 0 0 3 3 3 0 0 0
0 0 0 0 0 0 3 6 3 10 13 13 10 6 6 6 6 6 6 6 6 10 10 10 3 6 3 0 0 3 3 3 3 3 3 0 0 0 0 0 0 0 0 0
0 0 0 0 0 0 3 3 3 3 13 6 6 3 3 3 0 0 3 3 6 6 6 6 6 6 10 10 0 3 3 3 3 0 0 0 0 0 0 0 0 0 0 0
0 0 0 0 0 0 0 3 3 0 0 0 0 0 0 0 0 0 0 0 0 0 3 6 6 6 3 0 0 3 3 3 0 0 0 0 0 0 0 0 0 0 0 0
0 0 0 0 0 0 0 0 0 0 0 0 0 0 0 0 0 0 0 0 0 0 0 0 0 0 0 0 0 0 0 0 0 0 0 0 0 0 0 0 0 0 0 0
0 0 0 0 0 0 0 0 0 0 0 0 0 0 0 0 0 0 0 0 0 0 0 0 0 0 0 0 0 0 0 0 0 0 0 0 0 0 0 0 0 0 0 0
0 0 0 0 0 0 0 0 0 0 0 0 0 0 0 0 0 0 0 0 0 0 0 0 0 0 0 0 0 0 0 0 0 0 0 0 0 0 0 0 0 0 0 0
0 0 0 0 0 0 0 0 0 0 0 0 0 0 0 0 0 0 0 0 0 0 0 0 0 0 0 0 0 0 0 0 0 0 0 0 0 0 0 0 0 0 0 0
0 0 0 0 0 0 0 0 0 0 0 0 0 0 0 0 0 0 0 0 0 0 0 0 0 0 0 0 0 0 0 0 0 0 0 0 0 0 0 0 0 0 0 0
0 0 0 0 0 0 0 0 0 0 0 0 0 0 0 0 0 0 0 0 0 0 0 0 0 0 0 0 0 0 0 0 0 0 0 0 0 0 0 0 0 0 0 0
0 0 0 0 0 0 0 0 0 0 0 0 0 0 0 0 0 0 0 0 0 0 0 0 0 0 0 0 0 0 0 0 0 0 0 0 0 0 0 0 0 0 0 0
0 0 0 0 0 0 0 0 0 0 0 0 0 0 0 0 0 0 0 0 0 0 0 0 0 0 0 0 0 0 0 0 0 0 0 0 0 0 0 0 0 0 0 0
0 0 0 0 0 0 0 0 0 0 0 0 0 0 0 0 0 0 0 0 0 0 0 0 0 0 0 0 0 0 0 0 0 0 0 0 0 0 0 0 0 0 0 0
0 0 0 0 0 0 0 0 0 0 0 0 0 0 0 0 0 0 0 0 0 0 0 0 0 0 0 0 0 0 0 0 0 0 0 0 0 0 0 0 0 0 0 0
0 0 0 0 0 0 0 0 0 0 0 0 0 0 0 0 0 0 0 0 0 0 0 0 0 0 0 0 0 0 0 0 0 0 0 0 0 0 0 0 0 0 0 0
0 0 0 0 0 0 0 0 0 0 0 0 0 0 0 0 0 0 0 0 0 0 0 0 0 0 0 0 0 0 0 0 0 0 0 0 0 0 0 0 0 0 0 0
0 0 0 0 0 0 0 0 0 0 0 0 0 0 0 0 0 0 0 0 0 0 0 0 0 0 0 0 0 0 0 0 0 0 0 0 0 0 0 0 0 0 0 0

GEFSNGP_con_cape1000_150.txt.gz
Probability
0 0 0 0 0 0 0 0 0 0 3 3 3 6 10 19 23 19 16 16 16 23 16 13 13 10 13 13 13 13 13 10 6 3 6 3 0 0 0 0 0 0 0 0
0 0 0 0 0 3 3 0 0 0 0 0 0 6 10 13 23 19 16 13 13 16 19 16 16 16 10 13 10 10 13 13 10 0 0 0 0 0 3 3 6 6 6 6
0 0 0 0 0 0 0 0 0 0 0 0 6 6 10 10 16 19 16 13 16 16 16 19 19 13 10 10 6 10 6 3 6 6 6 6 3 6 3 3 3 3 3 3
0 0 0 0 0 0 0 3 3 3 0 0 6 6 10 6 3 10 13 16 19 19 16 10 13 10 10 6 6 6 3 6 3 3 0 0 0 0 3 3 3 3 3 3
0 0 0 0 0 0 3 6 3 3 0 0 6 10 6 3 10 13 13 19 16 16 13 10 16 10 6 6 3 3 3 3 3 3 0 0 0 0 0 0 0 0 0 0
0 0 0 0 0 0 0 3 3 3 0 3 10 10 6 0 3 6 13 10 13 16 10 13 13 13 6 3 3 3 3 3 3 6 3 3 0 0 0 0 0 0 0 0
0 0 0 0 0 0 0 0 3 6 6 3 3 3 3 0 0 6 6 6 16 13 13 13 6 6 6 3 3 3 3 6 6 3 3 3 3 0 0 0 0 0 0 0
0 0 0 0 0 0 0 0 6 6 3 0 0 0 6 0 3 6 6 6 6 10 10 3 3 3 3 3 6 6 6 3 0 0 3 3 3 0 0 0 0 0 0 0
0 0 0 0 0 0 0 6 6 6 3 0 3 6 3 6 3 3 6 6 6 10 6 3 3 3 3 3 3 3 6 6 3 3 0 3 3 3 0 0 0 0 0 0
0 0 0 0 0 0 0 6 10 10 3 3 3 3 6 6 3 6 6 3 10 10 10 6 3 3 3 3 3 3 3 0 0 3 3 3 3 3 3 3 3 0 0 0
0 0 0 0 0 0 0 3 6 10 3 3 6 6 3 3 3 3 6 6 6 10 10 6 3 3 0 0 0 0 0 0 0 3 3 3 3 0 3 3 3 3 3 3
0 0 0 0 0 0 0 3 3 3 0 3 3 0 0 0 3 3 3 6 6 6 6 6 3 0 0 0 0 0 3 0 0 0 3 3 3 0 0 0 0 0 0 0
0 0 0 0 0 0 0 0 3 0 0 0 0 0 0 0 0 0 3 3 6 6 6 3 0 0 0 0 0 0 0 0 0 0 3 3 3 0 0 0 0 0 0 0
0 0 0 0 0 0 0 0 0 0 0 0 0 0 0 0 0 0 0 0 0 3 3 3 3 3 0 0 0 0 0 0 0 0 3 3 0 0 0 0 0 0 0 0
0 0 0 0 0 0 0 0 0 0 0 0 0 0 0 0 0 0 0 0 0 0 0 3 3 3 3 0 0 0 0 0 0 0 0 0 0 0 0 0 0 0 0 0
0 0 0 0 0 0 0 0 0 0 0 0 0 0 0 0 0 0 0 0 0 0 0 0 0 0 3 3 0 0 0 0 0 0 0 0 0 0 0 0 0 0 0 0
0 0 0 0 0 0 0 0 0 0 0 0 0 0 0 0 0 0 0 0 0 0 0 0 0 0 0 0 0 0 0 0 0 0 0 0 0 0 0 0 0 0 0 0
0 0 0 0 0 0 0 0 0 0 0 0 0 0 0 0 0 0 0 0 0 0 0 0 0 0 0 0 0 0 0 0 0 0 0 0 0 0 0 0 0 0 0 0
0 0 0 0 0 0 0 0 0 0 0 0 0 0 0 0 0 0 0 0 0 0 0 0 0 0 0 0 0 0 0 0 0 0 0 0 0 0 0 0 0 0 0 0
0 0 0 0 0 0 0 0 0 0 0 0 0 0 0 0 0 0 0 0 0 0 0 0 0 0 0 0 0 0 0 0 0 0 0 0 0 0 0 0 0 0 0 0
0 0 0 0 0 0 0 0 0 0 0 0 0 0 0 0 0 0 0 0 0 0 0 0 0 0 0 0 0 0 0 0 0 0 0 0 0 0 0 0 0 0 0 0
0 0 0 0 0 0 0 0 0 0 0 0 0 0 0 0 0 0 0 0 0 0 0 0 0 0 0 0 0 0 0 0 0 0 0 0 0 0 0 0 0 0 0 0
0 0 0 0 0 0 0 0 0 0 0 0 0 0 0 0 0 0 0 0 0 0 0 0 0 0 0 0 0 0 0 0 0 0 0 0 0 0 0 0 0 0 0 0
0 0 0 0 0 0 0 0 0 0 0 0 0 0 0 0 0 0 0 0 0 0 0 0 0 0 0 0 0 0 0 0 0 0 0 0 0 0 0 0 0 0 0 0
0 0 0 0 0 0 0 0 0 0 0 0 0 0 0 0 0 0 0 0 0 0 0 0 0 0 0 0 0 0 0 0 0 0 0 0 0 0 0 0 0 0 0 0
0 0 0 0 0 0 0 0 0 0 0 0 0 0 0 0 0 0 0 0 0 0 0 0 0 0 0 0 0 0 0 0 0 0 0 0 0 0 0 0 0 0 0 0
0 0 0 0 0 0 0 0 0 0 0 0 0 0 0 0 0 0 0 0 0 0 0 0 0 0 0 0 0 0 0 0 0 0 0 0 0 0 0 0 0 0 0 0

GEFSNGP_con_cape1000_156.txt.gz
Probability
0 0 3 0 0 0 0 0 0 0 3 13 29 32 42 61 71 71 71 77 77 77 74 71 68 71 71 71 61 52 55 55 39 42 39 39 39 35 32 35 29 29 29 26
0 0 3 3 3 3 3 6 3 3 3 19 29 35 42 55 71 81 68 68 71 77 74 74 68 68 68 58 55 55 52 35 32 35 39 39 32 32 29 29 26 26 26 23
0 0 3 3 6 6 6 10 10 6 16 35 42 45 58 68 71 81 77 77 71 71 74 68 71 65 68 55 52 55 48 32 35 35 35 35 19 23 26 29 26 35 29 23
0 3 0 3 10 10 10 6 13 16 32 39 48 45 52 65 77 74 77 81 74 74 68 68 65 65 65 55 48 42 45 29 29 29 29 23 19 19 23 26 29 23 19 13
0 0 0 6 13 16 13 13 19 26 35 45 52 48 52 65 71 77 77 77 77 74 68 65 61 55 48 45 42 39 32 32 29 29 23 16 16 19 26 26 26 26 16 10
3 0 0 3 13 13 13 13 16 23 39 42 52 42 52 65 68 71 77 81 74 71 65 61 65 48 42 39 42 32 32 29 26 23 19 16 16 23 26 23 23 13 6 3
3 0 3 13 10 16 6 23 23 35 45 48 55 65 71 68 65 68 71 68 71 71 65 61 61 48 42 42 35 26 23 19 19 19 19 23 26 23 19 16 3 3 3 3
3 0 3 10 13 16 29 29 39 35 45 52 68 74 61 65 61 55 58 55 52 52 58 58 55 45 42 39 29 26 23 23 19 23 16 16 23 16 16 13 6 3 3 6
6 10 16 16 29 26 32 39 39 39 35 55 55 58 52 55 55 45 42 42 39 39 42 39 32 29 29 29 19 19 19 23 23 23 19 16 16 16 6 6 3 3 3 3
10 16 16 23 16 26 26 32 39 35 32 45 42 48 45 42 45 45 45 42 39 32 26 32 32 26 26 23 16 19 19 26 26 16 13 16 16 13 3 3 3 3 3 3
10 19 26 26 19 13 19 29 29 26 29 35 39 39 35 35 45 45 39 32 39 29 26 29 29 23 19 16 19 19 19 16 16 16 16 16 13 10 3 6 3 3 3 3
10 16 23 29 16 16 19 23 32 32 39 29 23 26 29 32 39 32 29 29 29 26 23 19 26 19 16 16 16 16 13 13 6 10 16 13 10 10 0 0 0 0 0 0
6 6 10 10 10 13 19 19 16 19 26 26 23 23 29 26 32 29 26 23 23 23 16 16 19 19 16 16 16 16 13 10 6 3 6 10 6 10 6 0 0 0 0 0
6 6 10 10 10 10 13 13 13 13 10 16 19 16 19 13 16 19 13 16 19 19 16 13 13 10 10 10 10 13 10 3 3 6 10 10 6 10 6 3 3 0 0 0
3 3 10 13 10 6 6 10 6 6 6 6 6 10 10 13 13 13 10 6 10 10 6 6 3 6 6 6 10 10 10 10 10 10 10 3 6 6 0 0 0 0 0 0
0 0 3 10 6 3 3 3 3 3 3 3 3 6 6 3 3 6 3 3 3 0 6 6 3 3 3 6 6 10 10 6 3 6 3 3 0 0 0 0 0 0 0 0
0 0 0 3 3 3 3 0 0 0 0 3 3 3 3 3 3 3 0 0 0 0 3 3 0 0 3 3 6 6 6 6 0 3 0 0 0 0 0 0 0 0 0 0
0 0 0 3 0 0 0 0 0 0 0 0 0 3 3 3 3 3 0 0 0 0 0 0 0 0 0 0 0 6 6 6 6 3 3 0 0 0 0 0 0 0 0 0
0 3 3 3 0 0 0 0 0 0 0 0 0 0 3 0 0 3 0 0 0 0 0 0 0 0 0 0 0 0 0 6 0 0 0 0 0 0 0 0 0 0 0 0
0 0 3 3 0 0 0 0 0 0 0 0 0 0 0 0 0 0 0 0 3 0 0 0 0 0 0 0 0 0 0 0 0 0 0 0 0 0 0 0 0 0 0 0
0 3 3 3 0 0 0 0 0 0 0 0 0 0 0 0 0 0 0 0 0 0 0 0 0 0 0 0 0 0 0 0 0 0 0 0 0 0 0 0 0 0 0 0
3 3 3 0 0 0 0 0 0 0 0 0 0 0 0 0 0 0 0 0 0 0 0 0 0 0 0 0 0 0 0 0 0 0 0 0 0 0 0 0 0 0 0 0
3 0 0 0 0 0 0 0 0 0 0 0 0 0 0 0 0 0 0 0 0 0 0 0 0 0 0 0 0 0 0 0 0 0 0 0 0 0 0 0 0 0 0 0
0 0 0 0 0 0 0 0 0 0 0 0 0 0 0 0 0 0 0 0 0 0 0 0 0 0 0 0 0 0 0 0 0 0 0 0 0 0 0 0 0 0 0 0
0 0 0 0 0 0 0 0 0 0 0 0 0 0 0 0 0 0 0 0 0 0 0 0 0 0 0 0 0 0 0 0 0 0 0 0 0 0 0 0 0 0 0 0
0 0 0 0 0 0 0 0 0 0 0 0 0 0 0 0 0 0 0 0 0 0 0 0 0 0 0 0 0 0 0 0 0 0 0 0 0 0 0 0 0 0 0 0
0 0 0 0 0 0 0 0 0 0 0 0 0 0 0 0 0 0 0 0 0 0 0 0 0 0 0 0 0 0 0 0 0 0 0 0 0 0 0 0 0 0 0 0

GEFSNGP_con_cape1000_162.txt.gz
Probability
0 0 0 0 0 0 0 0 0 0 3 19 32 35 45 55 61 77 84 87 94 87 87 87 84 81 81 77 74 71 68 65 61 58 52 39 42 45 42 42 35 39 39 32
0 0 0 0 0 0 0 0 0 3 13 19 39 55 45 58 68 71 77 77 84 90 90 87 84 74 81 77 77 74 71 61 55 45 35 42 42 42 39 39 35 32 32 29
0 0 0 0 0 0 0 0 3 13 29 23 39 52 48 55 55 77 81 84 84 87 90 90 81 77 81 81 68 74 58 58 52 39 45 35 32 35 35 35 32 32 23 23
0 0 0 0 3 0 0 10 10 29 32 35 52 55 65 74 77 81 81 87 87 81 87 84 84 81 74 77 68 61 58 48 42 35 29 29 32 29 32 29 26 23 23 23
0 0 0 3 3 0 10 16 23 39 45 48 48 48 55 77 74 84 77 81 84 81 81 84 87 84 74 74 65 65 48 39 32 26 26 29 32 32 29 26 26 26 19 19
0 0 0 3 0 0 6 23 23 45 52 58 52 61 61 65 77 81 81 74 81 81 81 84 81 81 74 71 65 55 48 42 39 35 39 29 29 26 26 26 19 19 19 19
3 0 3 10 0 3 3 32 35 52 55 71 71 74 77 74 74 84 77 77 81 81 74 77 81 77 68 65 61 52 45 42 35 35 26 26 26 23 23 23 23 19 16 16
0 0 6 16 13 29 68 61 52 55 55 65 68 71 74 77 77 65 68 68 68 71 74 77 77 74 68 61 52 48 35 26 19 23 19 16 26 23 23 23 23 19 16 16
13 16 39 55 58 58 58 48 48 39 42 52 61 61 68 71 65 65 61 68 65 61 65 74 71 68 65 52 48 42 26 19 19 19 19 19 16 16 16 23 19 19 19 13
26 26 39 39 42 35 39 39 42 45 42 52 55 55 55 55 65 52 58 61 61 58 58 58 61 52 48 42 35 29 23 19 19 16 16 19 16 16 19 16 16 13 13 13
29 23 26 29 32 35 32 35 39 45 45 45 39 48 55 48 52 52 55 52 48 48 48 42 42 39 39 29 32 26 19 19 16 16 13 13 19 16 19 13 6 16 16 19
19 29 32 32 29 26 35 32 35 39 39 42 45 45 29 39 42 42 39 45 45 45 39 35 35 35 26 29 29 23 19 13 13 13 16 13 13 10 0 0 0 0 0 0
32 26 26 29 29 29 29 35 35 35 39 32 42 42 39 39 35 39 39 39 42 35 29 29 26 23 23 23 23 23 19 13 13 13 16 16 16 13 10 0 0 0 0 0
16 19 16 26 26 26 26 29 29 26 29 26 32 39 35 32 35 32 35 35 32 29 29 23 23 19 23 23 16 16 13 13 13 13 13 13 13 10 10 10 0 0 0 0
6 13 13 16 23 23 23 16 23 19 16 19 23 35 32 29 32 32 32 32 23 23 13 16 13 16 16 13 16 16 13 13 13 13 13 13 13 10 10 3 3 0 0 0
3 6 10 10 13 10 13 16 16 13 10 6 6 6 10 19 23 23 19 19 19 13 13 10 10 10 10 10 13 16 10 6 6 10 10 10 6 6 6 6 6 0 0 0
3 3 3 6 6 3 10 10 6 10 6 3 3 3 6 10 13 16 19 19 19 13 10 10 10 10 6 6 3 3 6 6 3 6 3 3 3 3 6 6 3 0 0 0
3 3 3 6 6 6 6 6 3 3 0 0 0 0 6 10 10 13 13 13 13 6 10 10 6 3 0 0 3 0 0 3 6 6 6 6 6 3 3 3 0 0 0 0
0 0 0 3 6 10 6 0 0 3 3 3 0 0 3 3 10 10 10 10 10 10 6 3 0 3 3 0 0 0 0 0 3 6 6 3 6 6 6 3 3 3 0 0
0 0 3 3 10 6 3 0 3 3 3 0 0 0 0 6 10 10 10 10 16 6 3 3 3 3 3 3 0 0 0 0 0 0 0 3 0 0 0 0 0 0 0 0
0 0 0 3 6 3 3 0 0 0 0 0 0 0 3 10 10 10 13 6 6 6 3 0 3 3 3 3 0 0 0 0 0 0 0 0 0 0 0 0 0 0 0 0
0 0 3 3 3 6 3 0 0 0 0 0 0 0 0 3 6 6 10 3 3 0 0 0 0 0 3 0 0 0 0 0 0 0 0 0 0 0 0 0 0 0 0 0
3 3 3 3 6 3 0 0 0 0 0 0 0 0 0 3 6 3 0 0 0 0 0 0 0 0 0 0 0 0 0 0 0 0 0 0 0 0 0 0 0 0 0 0
6 6 6 3 0 0 0 0 0 0 0 0 0 0 0 3 3 3 0 0 0 0 0 0 0 0 0 0 0 0 0 0 0 0 0 0 0 0 0 0 0 0 0 0
6 10 3 3 3 0 0 0 0 0 0 0 0 0 0 0 0 0 0 0 0 0 0 0 0 0 0 0 0 0 0 0 0 0 0 0 0 0 0 0 0 0 0 0
6 3 6 3 3 0 0 0 0 0 0 0 0 0 0 0 0 0 0 0 0 0 0 0 0 0 0 0 0 0 0 0 0 0 0 0 0 0 0 0 0 0 0 0
0 0 3 0 0 0 0 0 0 0 0 0 0 0 0 0 0 0 0 0 0 0 0 0 0 0 0 0 0 0 0 0 0 0 0 0 0 0 0 0 0 0 0 0

GEFSNGP_con_cape1000_168.txt.gz
Probability
0 0 0 0 0 0 0 0 0 3 13 13 13 10 23 26 32 42 48 45 45 42 39 45 52 48 45 45 35 39 29 23 19 19 16 13 10 13 13 13 13 13 6 6
0 0 0 3 3 6 6 3 6 6 13 10 3 10 26 32 29 39 45 52 48 52 39 48 48 55 45 42 32 32 23 19 19 19 19 16 16 16 19 19 10 6 10 6
0 0 0 0 3 10 16 13 13 23 13 13 16 23 32 35 45 58 52 55 58 58 55 52 52 48 39 35 35 32 26 19 19 23 19 16 19 16 10 10 10 6 6 6
0 0 0 0 0 0 13 13 19 23 19 16 19 26 26 42 48 55 65 55 52 61 52 55 52 42 35 32 35 29 23 23 23 19 19 16 13 13 13 13 13 6 6 10
0 0 0 0 0 0 13 19 19 19 26 29 32 39 48 52 52 55 61 58 55 61 58 55 48 39 35 35 35 26 26 26 23 23 19 10 10 10 10 10 10 10 10 10
0 0 0 0 3 6 10 13 23 26 35 32 39 39 45 42 55 61 52 55 68 58 52 55 48 42 39 42 32 26 23 16 16 16 13 10 10 10 10 10 10 10 10 10
0 0 0 6 16 6 10 10 16 29 35 39 39 35 39 32 35 48 45 52 58 52 55 52 48 48 42 39 26 16 13 13 13 10 6 6 6 6 6 10 10 10 10 10
0 0 0 6 13 10 10 10 26 29 35 35 39 39 35 32 39 32 39 42 45 45 48 39 42 35 32 32 16 13 13 13 13 6 6 6 6 6 6 6 10 10 10 10
0 0 3 6 10 13 6 10 13 26 32 39 42 39 39 35 35 29 32 39 42 45 39 32 32 35 29 26 13 13 13 13 10 6 6 6 6 6 6 6 6 6 6 6
6 6 6 6 6 6 13 13 29 29 42 35 32 29 32 29 29 32 29 29 26 32 32 26 26 19 23 19 13 13 13 10 6 6 6 6 6 6 6 6 6 6 6 6
3 0 10 6 6 6 19 19 23 32 32 35 29 29 29 29 26 32 29 26 26 26 23 19 23 23 16 13 10 10 10 3 3 3 6 6 3 3 6 3 3 3 6 6
0 0 6 10 16 13 19 23 26 26 29 26 26 23 26 26 29 23 23 23 19 13 10 13 13 16 13 6 6 6 6 6 3 3 3 0 3 3 3 3 3 3 3 3
3 3 10 6 13 13 19 19 19 23 19 19 16 19 23 19 16 19 19 19 10 10 13 13 13 13 6 6 6 6 6 6 6 3 0 0 0 3 3 0 0 0 0 0
3 6 6 10 10 6 10 13 13 10 10 13 10 13 13 16 19 19 16 16 10 10 13 13 13 13 6 6 6 6 6 6 3 3 3 0 0 3 3 3 0 0 0 0
3 3 0 3 6 6 6 10 6 6 6 3 3 3 3 10 10 10 10 13 10 13 10 10 10 6 6 6 6 6 6 3 3 3 3 3 0 0 3 3 3 0 0 0
0 0 0 3 3 6 6 6 6 6 6 3 3 0 0 3 3 3 3 3 6 3 3 6 3 3 0 0 0 0 0 3 0 0 0 0 0 0 3 3 3 0 0 0
0 0 3 3 3 3 3 6 3 0 0 0 0 0 0 0 3 3 3 0 0 3 0 0 0 0 0 0 0 0 0 0 0 0 0 0 0 0 0 3 3 0 0 0
0 0 3 3 3 3 3 0 0 0 0 0 0 0 0 0 0 0 0 0 0 0 0 0 0 0 0 0 0 0 0 0 0 0 0 0 0 0 0 0 0 0 0 0
0 3 3 3 3 3 0 0 0 0 0 0 0 0 0 0 0 0 0 0 0 0 0 0 0 0 0 0 0 0 0 0 0 0 0 0 0 0 0 0 0 0 0 0
3 3 0 0 0 0 0 0 0 0 0 0 0 0 0 0 0 0 0 0 0 0 0 0 0 0 0 0 0 0 0 0 0 0 0 0 0 0 0 0 0 0 0 0
0 0 0 0 0 0 0 0 0 0 0 0 0 0 0 0 0 0 0 0 0 0 0 0 0 0 0 0 0 0 0 0 0 0 0 0 0 0 0 0 0 0 0 0
0 0 0 0 0 0 0 0 0 0 0 0 0 0 0 0 0 0 0 0 0 0 0 0 0 0 0 0 0 0 0 0 0 0 0 0 0 0 0 0 0 0 0 0
0 0 0 0 0 0 0 0 0 0 0 0 0 0 0 0 0 0 0 0 0 0 0 0 0 0 0 0 0 0 0 0 0 0 0 0 0 0 0 0 0 0 0 0
0 0 0 0 0 0 0 0 0 0 0 0 0 0 0 0 0 0 0 0 0 0 0 0 0 0 0 0 0 0 0 0 0 0 0 0 0 0 0 0 0 0 0 0
0 0 0 0 0 0 0 0 0 0 0 0 0 0 0 0 0 0 0 0 0 0 0 0 0 0 0 0 0 0 0 0 0 0 0 0 0 0 0 0 0 0 0 0
0 0 0 0 0 0 0 0 0 0 0 0 0 0 0 0 0 0 0 0 0 0 0 0 0 0 0 0 0 0 0 0 0 0 0 0 0 0 0 0 0 0 0 0
0 0 0 0 0 0 0 0 0 0 0 0 0 0 0 0 0 0 0 0 0 0 0 0 0 0 0 0 0 0 0 0 0 0 0 0 0 0 0 0 0 0 0 0

GEFSNGP_con_cape1000_174.txt.gz
Probability
0 0 0 0 0 3 3 0 0 0 3 6 13 13 10 16 19 26 32 39 39 35 35 35 35 39 35 29 26 23 19 13 13 6 3 3 3 0 0 0 0 3 3 3
0 0 0 0 0 0 0 0 3 6 6 3 6 6 13 19 26 26 35 42 35 35 39 32 42 42 39 29 26 23 19 16 6 3 3 3 0 0 0 0 3 3 3 3
0 0 0 0 0 0 10 10 10 10 6 13 16 13 19 16 32 29 32 42 35 32 39 35 39 35 35 32 26 19 23 23 10 10 10 10 6 3 3 3 3 6 3 3
0 0 0 0 0 6 13 13 13 13 13 13 19 16 19 16 29 35 39 35 35 35 35 39 35 26 26 19 19 16 23 16 13 6 6 6 6 6 6 6 6 6 3 3
0 0 0 0 3 0 3 10 3 10 13 13 10 19 19 26 26 39 35 35 32 32 39 32 29 26 19 19 16 16 16 10 6 6 3 3 3 3 6 6 6 6 6 6
0 0 0 0 3 0 3 3 6 13 16 19 13 16 23 29 29 32 32 32 39 35 29 32 29 23 16 13 13 13 10 10 10 6 3 3 0 3 3 6 6 6 3 6
0 0 0 0 0 3 0 3 6 13 16 16 13 13 23 35 29 26 26 32 29 23 29 23 16 16 13 13 10 10 10 10 10 6 3 0 0 3 3 3 3 6 6 6
0 0 0 0 10 10 0 0 10 10 13 13 16 23 23 19 26 19 32 29 29 23 19 16 10 13 10 10 13 10 10 10 6 6 0 0 0 3 3 3 3 3 3 6
0 0 0 3 3 3 0 6 16 13 16 19 19 16 19 13 13 16 32 32 26 13 13 6 6 6 10 3 3 6 3 6 6 3 0 0 0 3 3 3 3 3 3 3
3 3 6 10 10 10 3 6 13 10 13 19 19 23 23 23 19 19 23 23 19 13 13 6 3 6 3 0 0 6 6 3 3 0 0 3 3 3 3 3 3 3 3 3
3 6 6 10 10 6 13 13 13 16 19 16 19 26 23 19 19 19 23 23 19 10 10 3 3 3 3 6 6 3 3 3 3 0 0 0 3 3 3 3 3 3 3 3
0 0 0 10 6 6 10 16 16 16 16 10 10 13 10 13 16 16 16 16 13 13 13 6 6 10 10 10 3 3 3 3 0 0 0 0 0 0 0 0 0 0 0 0
0 0 0 10 13 13 16 13 13 13 13 10 6 3 3 6 3 3 3 10 13 13 10 10 10 10 10 13 6 6 6 6 3 3 0 0 0 0 0 0 0 0 0 0
3 6 6 3 3 6 10 10 6 3 6 6 6 6 6 3 0 0 0 0 3 6 6 10 10 10 10 10 10 10 6 3 3 3 0 0 0 0 0 0 0 0 0 0
6 6 3 3 3 3 3 3 3 3 3 6 6 6 3 0 0 0 0 0 0 3 0 0 3 3 6 0 0 3 3 3 3 3 0 0 0 0 0 0 0 0 0 0
3 3 3 3 3 3 3 3 3 3 3 3 0 0 0 0 0 0 0 0 0 3 0 0 0 0 0 0 0 0 0 0 0 0 0 0 0 0 0 0 0 0 0 0
0 3 3 3 3 3 3 3 3 3 0 0 0 0 0 0 0 0 0 0 0 0 0 0 0 0 0 0 0 0 0 0 0 0 0 0 0 0 0 0 0 0 0 0
0 0 3 3 0 0 0 3 3 3 0 0 0 0 0 0 0 0 0 0 0 0 0 0 0 0 0 0 0 0 0 0 0 0 0 0 0 0 0 0 0 0 0 0
0 0 0 0 0 0 0 0 0 0 0 0 0 0 0 0 0 0 0 0 0 0 0 0 0 0 0 0 0 0 0 0 0 0 0 0 0 0 0 0 0 0 0 0
0 0 0 0 0 0 0 0 0 0 0 0 0 0 0 0 0 0 0 0 0 0 0 0 0 0 0 0 0 0 0 0 0 0 0 0 0 0 0 0 0 0 0 0
0 0 0 0 0 0 0 0 0 0 0 0 0 0 0 0 0 0 0 0 0 0 0 0 0 0 0 0 0 0 0 0 0 0 0 0 0 0 0 0 0 0 0 0
0 0 0 0 0 0 0 0 0 0 0 0 0 0 0 0 0 0 0 0 0 0 0 0 0 0 0 0 0 0 0 0 0 0 0 0 0 0 0 0 0 0 0 0
0 0 0 0 0 0 0 0 0 0 0 0 0 0 0 0 0 0 0 0 0 0 0 0 0 0 0 0 0 0 0 0 0 0 0 0 0 0 0 0 0 0 0 0
0 0 0 0 0 0 0 0 0 0 0 0 0 0 0 0 0 0 0 0 0 0 0 0 0 0 0 0 0 0 0 0 0 0 0 0 0 0 0 0 0 0 0 0
0 0 0 0 0 0 0 0 0 0 0 0 0 0 0 0 0 0 0 0 0 0 0 0 0 0 0 0 0 0 0 0 0 0 0 0 0 0 0 0 0 0 0 0
0 0 0 0 0 0 0 0 0 0 0 0 0 0 0 0 0 0 0 0 0 0 0 0 0 0 0 0 0 0 0 0 0 0 0 0 0 0 0 0 0 0 0 0
0 0 0 0 0 0 0 0 0 0 0 0 0 0 0 0 0 0 0 0 0 0 0 0 0 0 0 0 0 0 0 0 0 0 0 0 0 0 0 0 0 0 0 0

GEFSNGP_con_cape1000_180.txt.gz
Probability
0 0 0 0 0 0 0 3 3 3 6 19 42 52 58 61 74 84 74 74 68 71 68 74 74 71 68 65 61 58 58 58 55 58 55 42 39 42 35 29 26 32 32 29
0 0 0 0 0 0 0 3 0 0 13 32 39 52 71 68 71 81 74 71 77 74 74 68 71 68 68 65 58 61 55 55 52 52 45 42 35 32 29 26 26 26 26 23
0 0 0 0 0 0 0 0 3 6 19 32 45 68 71 74 74 77 74 65 74 74 71 71 68 65 65 61 65 58 58 52 48 45 35 29 26 26 26 26 23 26 23 19
0 0 0 0 13 10 13 13 13 29 42 45 61 65 68 65 65 74 77 71 71 65 65 65 71 71 71 61 65 55 55 52 42 35 29 26 26 19 16 16 19 19 16 10
0 0 0 3 16 13 16 19 32 45 52 39 55 52 65 68 61 74 77 77 68 68 65 68 68 74 74 65 61 58 58 52 42 35 35 32 26 16 16 16 13 13 10 6
0 0 0 0 16 26 26 23 48 61 58 58 58 55 61 71 68 65 71 68 65 65 65 68 68 71 68 58 55 52 48 48 39 42 39 39 29 16 10 13 13 10 3 3
0 0 0 13 32 29 13 39 68 65 65 68 68 71 74 65 68 71 71 68 65 61 61 65 65 68 68 55 52 48 45 45 48 39 39 35 23 16 13 10 10 3 3 3
0 0 3 23 35 32 65 74 68 71 71 71 68 68 61 61 65 61 65 61 61 61 61 61 61 61 55 45 42 39 39 45 39 35 29 26 19 19 13 3 3 3 3 3
3 10 42 39 58 71 77 74 77 74 68 71 65 58 61 61 61 58 58 55 58 58 58 48 52 52 48 39 39 42 39 35 35 29 29 23 19 16 6 6 3 3 3 3
26 35 35 45 65 74 74 74 68 65 58 58 61 58 58 58 55 55 55 48 48 45 48 48 39 35 35 32 39 39 39 32 32 29 19 19 10 6 6 6 3 3 3 6
39 39 42 52 58 71 71 68 68 58 55 52 55 55 58 48 48 48 42 42 39 42 39 35 39 35 29 29 32 35 35 29 23 16 10 16 6 6 6 6 3 6 6 6
29 52 55 58 55 61 61 58 55 48 39 45 45 45 42 48 48 42 35 29 32 35 35 39 32 32 29 32 32 32 29 29 19 16 6 6 6 6 3 0 0 0 0 3
39 45 45 45 39 35 39 39 42 45 48 45 42 32 32 35 42 35 32 32 29 32 26 26 26 26 29 26 32 29 26 23 19 10 10 10 6 6 6 3 0 0 0 0
32 35 32 32 29 29 29 35 32 32 32 29 23 23 23 23 19 16 19 13 13 10 6 13 16 16 16 16 26 23 19 13 10 10 10 6 6 6 6 6 6 3 0 0
26 32 26 23 23 26 19 19 29 26 26 26 26 23 23 16 19 13 13 10 3 3 3 6 6 13 13 16 19 19 19 6 6 10 10 6 6 6 6 3 6 6 3 0
23 23 19 16 16 16 10 10 10 13 16 16 23 19 16 13 10 10 10 6 0 0 3 6 6 3 10 10 10 6 3 0 3 3 0 0 0 3 3 3 0 0 0 0
13 16 16 16 16 10 10 10 10 6 13 13 13 13 6 10 6 3 0 3 3 3 3 3 3 10 6 6 6 3 3 0 0 0 0 0 0 0 0 0 0 0 0 0
10 13 13 19 16 13 10 3 3 6 10 6 13 6 6 3 0 0 0 0 0 0 0 0 0 3 3 6 3 0 0 0 0 0 0 0 0 0 0 0 0 0 3 0
3 3 3 6 6 10 6 6 3 6 6 6 6 3 3 0 0 0 0 3 3 3 0 0 0 0 0 6 0 0 0 0 0 0 0 0 0 0 0 0 0 0 0 0
0 0 3 3 3 6 6 6 6 6 6 6 0 0 0 0 3 0 3 3 3 3 0 0 3 3 3 3 0 0 0 0 0 0 0 0 0 0 0 0 0 0 0 0
0 0 3 0 0 0 0 0 0 3 3 3 0 3 3 3 0 3 0 0 0 0 0 0 0 3 3 0 0 0 0 0 0 0 0 0 0 0 0 0 0 0 0 0
0 0 3 0 0 0 0 0 0 3 3 3 0 0 0 3 3 0 0 0 0 0 0 0 0 0 0 0 0 0 0 0 0 0 0 0 0 0 0 0 0 0 0 0
0 0 0 0 3 6 0 0 0 0 3 3 3 0 0 3 3 3 0 0 0 0 0 0 0 0 0 0 0 0 0 0 0 0 0 0 0 0 0 0 0 0 0 0
0 0 0 0 6 0 0 0 0 0 3 3 3 3 3 3 0 3 0 0 0 0 0 0 0 0 0 0 0 0 0 0 0 0 0 0 0 0 0 0 0 0 0 0
0 0 0 3 3 0 0 0 0 3 3 3 0 3 0 0 0 0 0 0 0 0 0 0 0 0 0 0 0 0 0 0 0 0 0 0 0 0 0 0 0 0 0 0
0 0 0 0 0 0 0 0 3 3 3 0 0 0 0 0 0 0 0 0 0 0 0 0 0 0 0 0 0 0 0 0 0 0 0 0 0 0 0 0 0 0 0 0
0 0 0 0 0 0 0 0 0 3 0 0 0 0 0 0 0 0 0 0 0 0 0 0 0 0 0 0 0 0 0 0 0 0 0 0 0 0 0 0 0 0 0 0

GEFSNGP_con_cape1000_186.txt.gz
Probability
0 0 0 0 0 0 0 0 0 6 13 39 42 55 65 61 61 77 81 81 81 77 81 81 84 81 77 74 74 77 74 74 74 71 68 68 65 58 55 48 42 48 42 32
0 0 0 0 0 0 0 0 3 0 19 26 45 45 58 61 61 77 81 77 77 81 74 74 74 74 74 71 71 81 71 71 71 71 71 71 61 55 58 55 48 39 29 26
0 0 0 0 0 0 0 0 0 10 23 29 45 52 55 65 65 77 77 74 77 77 77 68 68 71 74 71 71 77 74 68 68 68 65 65 55 48 48 55 48 32 29 26
0 0 0 0 0 0 0 0 6 16 26 35 52 61 68 68 74 77 74 77 77 74 74 71 68 68 68 71 68 68 68 68 61 55 55 55 52 42 35 42 35 35 26 23
0 0 0 0 0 0 3 6 10 23 29 39 48 48 61 65 71 71 81 81 77 74 71 71 71 71 68 68 68 65 58 61 52 52 48 52 52 52 45 39 35 32 19 13
0 0 0 0 0 0 3 10 23 29 35 35 52 48 58 68 68 71 71 77 77 68 68 68 68 68 68 68 61 58 55 55 55 55 52 48 52 52 45 35 35 29 16 16
0 0 0 0 0 6 6 39 42 48 52 65 77 74 74 77 74 71 71 74 74 68 68 68 68 68 68 61 55 55 55 58 58 61 58 48 39 45 45 39 35 26 16 13
3 0 6 10 10 16 65 84 65 68 77 77 74 68 71 74 74 68 68 65 61 61 65 68 68 65 58 58 58 55 55 55 55 58 42 35 39 45 42 32 26 19 16 10
23 39 74 71 68 71 74 77 77 77 71 68 68 65 68 71 68 68 65 61 58 61 61 65 65 61 55 55 52 48 48 52 48 48 48 45 39 32 39 29 19 16 16 6
61 58 71 61 68 77 77 68 65 65 61 61 61 61 65 61 61 58 61 55 55 55 48 52 58 58 58 52 52 48 48 48 48 45 42 39 35 26 26 19 10 13 13 10
61 68 74 74 74 65 71 71 65 65 65 61 55 58 58 58 58 55 55 48 52 52 45 52 52 48 52 52 52 45 39 35 35 32 29 29 26 23 19 23 6 6 6 3
61 74 81 81 74 71 74 68 71 65 61 55 48 52 52 52 55 52 45 45 45 45 42 42 48 52 52 48 48 48 39 39 26 26 29 23 16 10 6 3 3 0 0 0
74 71 74 65 61 61 65 65 58 58 45 45 48 48 48 48 45 45 42 45 35 39 42 39 48 39 42 42 42 42 35 29 19 26 26 23 16 16 13 3 3 0 0 0
71 71 52 55 61 61 52 52 45 42 39 42 42 42 35 35 35 39 35 29 26 29 29 35 32 35 32 32 32 29 29 16 13 26 23 23 16 16 13 10 3 3 3 0
55 55 55 52 48 45 42 42 39 39 42 35 35 32 26 29 26 23 23 16 16 19 16 16 13 23 23 16 23 26 19 23 19 16 13 16 10 6 3 0 3 3 3 3
39 45 42 45 39 39 45 39 32 26 29 32 32 29 29 26 19 19 19 16 19 19 19 13 10 13 16 16 19 26 26 10 10 13 10 10 13 6 3 3 3 3 0 0
39 35 42 32 32 32 32 26 29 26 26 26 26 26 26 23 16 16 19 16 19 23 16 16 13 13 13 13 16 10 6 0 0 3 3 6 3 3 0 0 0 0 0 0
26 29 32 29 29 29 23 26 26 23 26 26 23 19 19 23 19 13 13 3 6 10 10 10 10 10 6 6 10 3 0 0 0 0 3 3 3 3 0 0 0 0 0 0
10 13 16 23 23 23 23 26 19 23 23 23 23 19 19 19 19 10 6 3 3 6 10 6 0 0 0 0 0 3 0 0 0 3 3 3 0 0 0 0 0 0 0 0
10 10 13 16 13 13 19 26 19 23 23 19 19 19 13 6 6 6 10 10 6 6 6 3 3 3 0 0 0 0 0 0 3 3 3 3 0 0 0 0 0 0 0 0
6 10 3 10 6 10 10 13 13 13 19 16 16 13 10 6 3 6 6 3 10 3 0 0 0 3 3 3 0 0 0 0 0 3 3 3 0 0 0 0 0 0 0 0
10 6 3 3 6 3 10 10 10 10 16 16 10 6 6 6 0 3 6 10 3 0 0 0 0 0 0 0 0 0 0 0 3 6 3 3 0 0 0 0 0 0 0 0
3 3 10 6 10 13 6 6 13 13 13 10 10 3 0 3 6 6 3 3 3 0 0 0 0 0 0 0 0 0 0 0 3 0 0 0 0 0 0 0 0 0 0 0
10 6 6 10 13 13 13 6 10 10 10 6 6 3 0 0 0 3 3 0 0 0 0 0 0 0 0 0 0 0 0 0 3 0 0 0 0 0 0 0 0 0 0 0
6 6 6 10 10 13 13 6 3 0 0 6 6 6 0 0 3 3 3 0 0 0 0 0 0 0 0 0 0 0 0 0 0 0 0 3 3 0 0 0 0 0 0 0
10 10 6 6 10 19 10 6 10 6 6 6 3 3 3 0 3 3 3 0 0 0 0 0 0 0 0 0 0 0 0 0 0 0 0 0 0 3 0 0 0 0 0 0
6 6 16 6 10 10 6 0 0 0 0 6 3 3 6 3 3 3 0 0 0 0 0 0 0 0 0 0 0 0 0 0 0 0 0 0 0 0 0 0 0 0 0 0

GEFSNGP_con_cape1000_192.txt.gz
Probability
0 0 0 0 0 0 0 0 0 3 13 19 26 29 32 32 32 35 42 48 55 48 45 48 52 48 52 42 42 42 42 35 32 26 26 23 23 23 19 19 16 13 13 6
0 0 0 0 0 0 0 0 3 6 10 13 19 26 35 42 39 48 48 48 55 52 52 52 55 52 45 39 35 42 29 26 26 26 23 26 26 16 16 19 16 16 16 10
0 0 0 0 0 3 3 0 3 10 29 19 29 32 39 42 42 48 48 45 48 52 58 55 52 48 45 39 32 32 32 29 29 26 23 26 26 19 16 16 13 16 13 10
0 0 0 0 0 3 6 10 10 23 23 26 39 29 35 39 45 52 45 45 42 48 52 48 48 45 39 35 35 35 32 29 26 26 23 26 19 19 19 16 13 13 13 6
0 0 0 0 0 0 10 13 16 23 32 35 39 42 39 45 45 55 52 45 45 48 48 55 48 45 39 35 39 35 29 26 23 29 26 26 23 19 13 19 16 13 13 6
0 0 0 0 3 3 16 23 29 35 29 39 35 35 42 45 55 58 45 42 45 45 48 48 45 39 39 35 35 39 32 29 29 19 19 13 19 16 16 13 16 16 13 10
0 0 0 3 13 3 6 19 29 32 42 29 26 32 39 48 52 48 52 45 45 48 45 45 45 42 39 35 39 35 35 32 29 16 16 16 13 6 3 6 13 10 10 6
0 0 0 13 26 16 16 19 29 29 35 35 35 48 52 48 48 42 52 52 48 48 42 39 42 39 35 32 32 26 19 23 19 13 19 19 16 10 6 6 6 6 6 3
0 0 3 19 26 19 26 39 32 32 39 45 45 52 58 55 48 45 45 48 48 42 35 35 29 32 32 29 32 19 16 16 13 13 16 13 10 10 10 6 6 6 6 6
16 13 19 26 32 26 35 39 39 45 52 48 52 52 45 45 42 45 45 42 45 35 32 32 32 29 32 26 23 16 16 16 13 13 13 6 6 10 6 6 6 3 3 6
16 19 19 23 39 42 45 45 42 48 48 48 52 39 39 39 35 35 39 26 29 29 26 23 23 26 26 23 19 19 19 19 19 16 6 6 3 0 0 0 6 3 0 0
19 19 26 26 35 39 45 42 45 45 45 45 45 32 35 32 29 29 19 19 16 16 19 19 19 19 16 13 13 13 13 13 13 6 0 0 3 0 0 0 0 0 0 0
13 19 19 23 26 32 35 42 42 39 35 39 32 32 29 26 19 16 19 19 16 16 13 16 16 16 10 13 13 13 13 13 10 3 0 0 0 0 0 0 0 0 0 0
19 19 19 19 23 32 39 39 32 32 29 29 26 29 32 19 19 16 13 16 13 13 13 13 13 10 10 10 10 13 13 10 10 0 0 0 0 0 0 0 0 0 0 0
16 19 16 13 23 26 29 26 23 26 23 23 16 19 19 16 16 13 13 6 3 6 3 6 6 6 6 6 6 6 6 6 10 3 0 0 0 0 0 0 0 0 0 0
13 10 13 19 23 16 23 19 19 23 19 16 16 19 19 16 13 13 10 6 3 0 0 3 0 0 3 3 3 3 6 6 6 0 3 0 0 0 0 0 0 0 0 0
6 13 13 13 13 10 13 13 13 16 16 16 16 16 13 13 6 3 0 0 0 0 0 0 0 0 0 3 3 3 0 0 0 0 0 0 0 0 0 0 0 0 0 0
3 6 3 6 10 6 3 3 13 10 6 6 10 13 13 3 6 3 0 0 0 0 0 0 0 0 0 0 0 0 0 0 0 0 0 0 0 0 0 0 0 0 0 0
6 3 3 6 3 3 3 3 6 6 3 6 3 0 0 0 0 0 0 0 0 0 0 0 0 0 0 0 0 0 0 0 0 0 0 0 0 0 0 0 0 0 0 0
3 3 3 3 3 3 3 3 6 6 6 3 0 0 0 0 0 0 0 0 0 0 0 0 0 0 0 0 0 0 0 0 0 0 0 0 0 0 0 0 0 0 0 0
0 3 3 3 3 3 3 3 10 10 6 3 0 0 0 0 0 0 0 0 0 0 0 0 0 0 0 0 0 0 0 0 0 0 0 0 0 0 0 0 0 0 0 0
0 0 0 0 0 0 3 6 6 6 3 3 0 0 0 0 0 0 0 0 0 0 0 0 0 0 0 0 0 0 0 0 0 0 0 0 0 0 0 0 0 0 0 0
0 0 3 0 0 0 0 0 0 3 3 3 0 0 0 0 0 0 0 0 0 0 0 0 0 0 0 0 0 0 0 0 0 0 0 0 0 0 0 0 0 0 0 0
3 0 0 0 0 0 0 0 0 0 3 3 3 0 0 0 0 0 0 0 0 0 0 0 0 0 0 0 0 0 0 0 0 0 0 0 0 0 0 0 0 0 0 0
0 0 0 0 0 0 0 0 3 0 0 3 0 0 0 0 0 0 0 0 0 0 0 0 0 0 0 0 0 0 0 0 0 0 0 0 0 0 0 0 0 0 0 0
0 0 0 0 0 0 0 0 0 0 0 0 0 0 0 0 0 0 0 0 0 0 0 0 0 0 0 0 0 0 0 0 0 0 0 0 0 0 0 0 0 0 0 0
0 0 0 0 0 0 0 0 0 0 0 0 0 0 0 0 0 0 0 0 0 0 0 0 0 0 0 0 0 0 0 0 0 0 0 0 0 0 0 0 0 0 0 0

GEFSNGP_con_cape1000_198.txt.gz
Probability
0 0 0 0 0 0 0 0 0 0 0 10 16 23 19 23 26 39 32 32 32 32 35 35 35 29 26 23 19 16 16 16 16 6 6 10 6 6 6 6 10 6 6 6
0 0 0 0 0 0 0 0 0 0 3 10 13 16 19 19 16 26 26 32 29 32 39 39 29 29 26 19 23 16 16 13 10 10 10 10 6 6 6 6 6 10 10 10
0 0 0 0 0 3 0 0 3 3 6 10 13 16 16 16 13 26 29 26 23 23 32 32 32 29 29 32 23 19 19 16 10 10 10 6 13 6 6 6 6 6 10 10
0 0 0 0 0 0 0 3 3 0 0 16 16 10 6 13 26 29 26 26 26 26 32 29 26 26 23 23 19 19 16 19 16 13 10 6 6 3 3 0 3 6 6 6
0 0 0 0 0 3 0 3 3 10 10 10 19 19 19 19 26 23 23 26 26 32 29 29 26 29 19 23 23 16 16 16 10 10 10 3 3 0 0 0 0 0 6 6
0 0 0 0 0 6 3 0 6 13 16 23 19 16 23 26 29 32 29 32 26 29 26 29 26 19 23 23 16 16 13 13 13 3 3 3 3 3 0 0 0 3 6 6
0 0 0 0 3 3 0 0 3 16 23 19 16 13 16 29 35 32 32 32 29 32 26 19 23 23 19 26 23 16 16 10 6 6 6 6 6 6 6 3 3 3 3 3
0 0 0 0 10 6 3 0 19 19 19 23 16 26 26 29 32 29 32 29 29 26 23 19 19 19 19 19 16 13 6 6 3 3 3 6 10 6 0 0 3 3 3 0
0 0 0 6 6 3 3 16 23 19 16 23 23 19 19 26 29 29 32 23 23 26 19 19 23 19 16 13 10 6 6 3 3 3 3 6 6 6 3 0 0 0 0 0
0 0 6 13 6 10 10 13 16 10 13 19 16 16 19 19 29 29 26 23 26 19 19 16 16 13 13 6 6 6 6 3 3 3 6 6 6 3 3 3 0 0 0 0
6 6 10 13 13 13 13 13 16 16 23 23 16 16 19 19 26 23 16 13 19 23 16 16 16 10 10 6 6 6 3 3 3 6 6 6 6 3 0 0 0 0 0 0
10 6 10 13 13 13 16 19 19 19 26 26 19 16 26 23 19 19 16 10 10 13 13 10 10 13 10 6 6 6 6 6 6 6 6 3 0 0 0 0 0 0 0 0
3 6 13 13 13 16 16 16 19 26 26 19 16 19 26 23 23 16 19 16 16 16 13 13 13 13 10 6 6 3 3 3 3 3 3 0 0 0 0 0 0 0 0 0
10 10 10 10 13 16 16 19 19 26 19 19 19 19 19 19 16 16 16 16 16 16 16 16 16 10 6 6 6 6 6 3 3 3 3 0 0 0 0 0 0 0 0 0
10 10 10 13 13 13 16 19 19 16 16 16 23 19 16 16 13 13 13 16 16 13 13 10 6 6 3 6 6 6 6 3 3 3 0 0 0 0 0 0 0 0 0 0
6 6 10 10 10 13 23 16 16 16 16 19 23 16 13 13 6 6 3 10 10 6 6 6 6 3 3 3 3 3 3 0 0 0 0 0 0 0 0 0 0 0 0 0
6 10 10 10 10 16 16 16 13 16 13 13 16 13 6 6 3 3 3 6 10 6 6 6 6 3 3 3 3 3 0 0 0 0 0 0 0 0 0 0 0 0 0 0
3 10 6 6 6 10 10 10 10 10 13 6 6 3 3 3 3 3 3 6 3 3 6 3 3 3 3 3 0 0 0 0 0 0 0 0 0 0 0 0 0 0 0 0
0 6 3 3 3 0 6 6 6 3 3 3 3 6 6 3 3 3 3 3 3 3 0 0 0 0 0 0 0 0 0 0 0 0 0 0 0 0 0 0 0 0 0 0
3 3 3 0 0 0 3 3 3 3 0 0 3 6 6 0 0 0 0 0 0 0 0 0 0 0 0 0 0 0 0 0 0 0 0 0 0 0 0 0 0 0 0 0
3 3 3 0 0 0 0 0 3 0 0 0 3 3 3 0 0 0 0 0 0 0 0 0 0 0 0 0 0 0 0 0 0 0 0 0 0 0 0 0 0 0 0 0
3 3 3 0 0 0 0 0 0 0 0 0 3 0 0 0 0 0 0 0 0 0 0 0 0 0 0 0 0 0 0 0 0 0 0 0 0 0 0 0 0 0 0 0
0 0 0 0 0 0 0 0 0 0 0 0 0 0 0 0 0 0 0 0 0 0 0 0 0 0 0 0 0 0 0 0 0 0 0 0 0 0 0 0 0 0 0 0
0 0 0 0 0 0 0 0 0 0 0 0 0 0 0 0 0 0 0 0 0 0 0 0 0 0 0 0 0 0 0 0 0 0 0 0 0 0 0 0 0 0 0 0
0 0 0 0 0 0 0 0 0 0 0 0 0 0 0 3 3 0 0 0 0 0 0 0 0 0 0 0 0 0 0 0 0 0 0 0 0 0 0 0 0 0 0 0
0 0 0 0 0 0 0 0 0 0 0 0 0 0 0 0 0 0 0 0 0 0 0 0 0 0 0 0 0 0 0 0 0 0 0 0 0 0 0 0 0 0 0 0
0 0 0 0 0 0 0 0 0 0 0 0 0 0 0 0 0 0 0 0 0 0 0 0 0 0 0 0 0 0 0 0 0 0 0 0 0 0 0 0 0 0 0 0

GEFSNGP_con_cape1000_204.txt.gz
Probability
0 0 0 0 0 0 0 0 0 0 0 13 29 52 48 55 61 77 71 74 71 77 81 84 77 77 68 65 58 61 58 52 52 58 55 48 48 52 48 35 29 35 29 26
0 0 0 0 0 0 0 0 0 0 6 16 35 48 52 58 68 77 74 71 77 74 81 81 77 71 68 65 65 61 61 61 55 58 52 52 52 45 42 42 42 35 35 29
0 0 0 0 0 0 3 6 6 13 19 23 32 58 61 68 68 71 71 71 68 74 74 74 68 68 68 68 65 61 61 61 61 55 48 45 42 42 39 39 39 39 29 29
0 0 0 0 3 0 0 0 3 6 13 19 35 61 65 65 65 68 58 61 65 61 65 61 61 65 65 61 55 55 58 61 61 52 48 45 45 45 39 39 39 39 39 29
0 0 0 0 3 0 0 0 3 13 16 32 48 48 58 58 58 68 58 58 55 61 58 58 55 55 55 48 52 52 55 58 55 48 48 48 45 39 35 35 35 35 26 29
0 0 0 0 6 13 6 0 13 23 26 39 48 42 42 48 52 58 55 52 55 58 55 55 55 55 52 45 52 48 48 52 48 42 42 39 42 45 39 35 32 29 26 23
0 0 0 3 16 10 6 13 23 23 32 42 45 39 52 52 58 48 52 52 55 55 55 55 55 55 55 55 52 48 48 45 42 42 42 39 32 39 32 29 23 23 19 23
0 0 0 10 16 13 19 19 26 35 48 48 52 52 52 52 42 45 52 52 48 55 55 55 52 55 58 55 52 48 42 39 39 39 32 29 29 29 19 23 23 19 19 16
0 0 23 23 19 29 29 32 42 45 45 52 52 52 48 42 42 42 52 52 52 55 52 52 52 48 52 39 35 39 42 42 42 39 35 26 29 32 29 29 19 16 13 10
6 10 16 26 26 32 29 35 42 48 48 52 52 52 42 42 42 39 42 45 45 42 48 48 42 35 39 32 29 32 32 35 32 26 23 23 23 23 16 16 16 16 10 13
16 23 29 35 32 39 39 42 42 48 55 55 48 45 39 39 35 35 39 45 42 45 48 39 35 32 32 32 32 32 32 32 19 19 19 19 16 16 13 16 13 13 13 13
16 29 29 42 39 39 39 45 48 55 52 48 45 35 32 32 29 35 35 35 45 42 48 35 32 32 29 32 32 32 26 19 13 13 13 13 10 10 6 6 0 0 3 3
26 26 29 39 39 35 45 48 52 48 45 39 35 39 32 32 32 39 39 42 42 45 42 39 35 32 26 29 32 32 23 19 13 10 10 13 10 10 6 0 0 0 0 0
26 35 35 35 35 32 32 35 45 42 39 35 39 35 32 32 35 32 35 35 35 35 35 29 29 29 16 19 26 26 23 10 10 13 10 10 10 10 10 6 3 0 0 0
23 29 39 39 35 35 39 35 32 39 39 35 35 32 32 32 35 35 26 29 26 26 23 23 26 23 19 19 16 19 16 10 13 13 10 10 10 10 6 6 3 3 0 0
26 26 32 35 32 35 35 32 32 29 32 32 29 29 29 32 32 26 29 26 26 26 26 26 26 23 23 19 16 16 16 10 10 10 10 13 10 3 3 3 3 3 3 0
26 29 35 32 39 35 32 32 29 23 23 26 26 26 26 29 29 29 29 26 23 23 26 23 23 23 26 23 19 19 13 6 6 6 6 3 3 3 3 3 3 3 3 0
19 19 29 32 32 39 29 29 26 19 19 19 19 29 26 29 29 29 26 26 26 19 19 16 19 19 19 19 13 13 6 6 6 6 3 6 3 3 6 3 3 3 3 0
16 16 26 32 32 32 29 29 23 23 23 16 19 19 26 26 29 29 26 26 23 13 13 13 10 10 16 13 10 10 6 6 3 0 0 0 0 0 0 0 0 0 0 0
13 13 19 26 29 26 26 19 19 19 13 13 16 19 23 19 26 23 19 13 10 13 10 10 10 10 10 10 3 6 6 3 0 3 0 0 0 0 0 0 0 0 0 0
16 13 16 16 19 23 23 19 23 16 16 16 16 16 10 13 13 13 13 13 10 13 13 3 10 13 13 3 0 6 3 3 3 0 0 0 0 0 0 0 0 0 0 0
13 13 10 13 16 23 19 19 16 13 13 13 13 10 10 6 10 10 6 6 6 6 6 3 3 0 0 0 6 3 3 3 0 0 0 0 0 0 0 0 0 0 0 0
19 16 19 23 23 26 23 13 10 13 13 6 6 6 3 3 3 3 3 3 3 0 0 0 0 0 0 0 3 3 0 0 0 0 0 0 0 0 0 0 0 0 0 0
26 26 29 26 26 26 19 13 10 10 10 10 10 10 6 3 3 0 0 3 3 3 3 3 0 0 0 0 0 0 0 0 0 0 0 0 0 0 0 0 0 0 0 0
26 29 26 26 23 19 19 16 10 10 10 6 6 6 10 6 0 0 0 3 3 0 3 3 0 0 0 0 0 0 0 0 0 0 0 0 0 0 0 0 0 0 0 0
26 23 23 13 6 13 13 10 6 6 3 3 3 0 3 0 0 0 0 0 0 3 3 3 3 0 0 0 0 0 0 0 0 0 0 0 0 0 0 0 0 0 0 0
6 6 13 6 6 6 6 10 6 3 3 3 0 0 0 0 0 3 0 0 0 0 3 3 3 3 0 0 0 0 0 0 0 0 0 0 0 0 0 0 0 0 0 0

GEFSNGP_con_cape1000_210.txt.gz
Probability
0 0 0 0 0 0 0 3 6 6 19 23 32 29 39 45 55 68 77 74 81 87 84 84 77 77 74 71 71 77 81 77 74 77 71 71 65 55 55 55 45 42 42 42
0 0 0 0 0 0 3 3 6 6 19 23 19 26 32 42 45 68 68 71 74 81 74 77 81 77 77 71 71 71 71 74 71 68 68 71 55 55 58 55 55 45 42 39
0 0 0 0 0 0 3 3 3 10 19 23 29 29 42 52 48 61 68 68 71 65 68 77 77 77 71 71 68 68 68 68 68 68 68 61 55 52 52 52 52 45 42 39
0 0 0 0 0 0 0 3 6 6 6 13 26 42 58 55 48 55 65 65 61 65 65 71 71 71 68 61 65 65 65 65 68 65 65 65 61 58 58 58 45 45 42 29
0 0 0 0 0 0 0 6 13 13 13 6 26 35 39 52 55 55 58 58 65 61 61 65 65 61 55 58 68 65 65 61 58 58 55 52 52 58 52 52 42 39 32 26
0 0 0 0 0 0 0 13 16 19 19 23 26 35 35 52 52 58 58 55 58 55 55 65 65 58 55 58 58 55 55 55 55 55 52 52 52 48 45 48 42 35 29 23
0 0 0 0 3 0 3 32 26 26 32 42 48 45 48 52 52 61 61 58 58 58 55 55 61 61 58 58 52 52 52 55 52 52 45 48 48 48 45 39 35 35 23 23
0 0 0 16 16 19 32 42 32 29 32 39 52 55 45 45 52 52 55 55 58 55 58 58 61 61 58 48 52 45 48 48 45 45 39 35 39 45 35 32 32 29 26 23
3 6 32 35 26 26 26 26 26 26 26 35 39 48 45 52 48 48 52 55 55 55 58 58 55 58 58 55 52 48 48 52 45 42 42 35 39 32 26 26 19 23 26 26
29 16 26 16 19 26 23 29 29 29 29 32 42 48 52 48 48 48 48 52 48 52 55 52 55 48 52 52 48 48 52 48 45 42 35 32 29 26 23 19 23 19 19 19
26 29 19 19 26 26 23 32 32 32 32 39 48 48 48 45 52 52 45 45 48 58 55 52 55 52 48 52 48 45 42 42 39 35 32 32 26 16 16 19 16 19 19 19
19 32 35 29 29 19 26 29 32 35 42 45 52 52 45 45 45 48 48 48 55 48 48 52 52 45 45 52 52 48 39 39 32 29 29 23 19 16 3 10 10 10 10 10
13 19 16 29 32 32 35 39 39 45 45 52 55 52 39 35 45 48 48 45 52 52 48 48 42 45 45 45 48 48 42 29 19 19 16 19 19 19 13 3 0 0 0 3
19 26 29 35 32 35 39 39 42 42 45 45 48 45 39 39 39 42 48 42 39 45 45 42 42 39 45 42 45 35 32 19 19 19 19 19 19 19 19 10 3 3 0 0
26 26 29 35 39 35 39 42 39 39 39 45 39 32 32 32 35 39 35 35 35 29 39 32 32 42 42 45 32 35 26 23 19 19 19 19 16 13 13 10 6 3 3 0
23 26 26 32 35 35 32 35 32 35 42 39 32 32 35 32 35 35 32 26 26 29 32 35 35 32 35 39 35 35 26 19 16 19 23 19 19 16 10 10 6 3 3 3
23 26 23 29 29 35 32 32 32 39 35 35 32 35 32 32 35 32 26 26 32 32 35 32 29 29 29 32 35 29 23 16 6 13 19 19 19 19 13 10 3 3 3 3
23 23 23 32 29 32 32 29 35 32 35 29 29 29 32 32 32 29 29 26 29 19 23 29 29 29 29 29 29 23 23 19 23 19 19 19 16 16 16 10 6 6 6 3
23 23 23 26 29 32 32 32 32 32 29 29 29 26 26 29 32 29 32 29 26 26 26 23 16 23 26 23 16 26 19 16 13 10 10 10 10 10 10 6 6 3 6 3
23 23 26 23 26 32 32 35 29 32 29 29 26 23 23 23 29 32 29 35 19 16 26 23 23 16 16 16 13 13 16 16 16 10 10 10 10 10 10 6 6 3 3 0
19 19 19 26 29 29 35 32 29 29 26 26 23 23 23 23 23 23 26 10 26 16 19 16 16 16 16 13 13 13 16 16 16 13 10 10 10 10 10 3 3 0 0 0
23 16 19 26 29 29 32 39 32 29 26 26 23 23 29 26 19 23 29 29 16 3 6 13 13 13 16 6 13 13 13 13 16 10 10 3 3 3 3 3 3 0 0 0
29 26 29 26 26 35 32 32 32 32 32 29 26 26 23 26 13 13 13 13 6 3 3 6 3 3 3 3 10 10 6 6 6 6 3 3 3 3 3 3 0 0 0 0
29 29 29 26 29 35 35 26 26 29 32 32 23 29 29 16 13 10 10 3 0 3 3 0 0 0 3 6 6 6 10 13 13 10 6 6 6 6 3 3 0 0 0 0
26 29 26 29 26 32 29 29 29 29 29 23 10 13 10 6 10 6 6 6 0 0 0 0 0 0 6 10 10 10 10 13 13 6 6 6 6 6 6 3 3 3 0 0
29 29 29 32 32 35 26 26 26 26 23 16 10 10 6 13 13 13 10 6 3 0 3 3 3 0 6 6 10 10 6 6 3 3 3 3 3 3 3 3 3 3 0 0
26 26 26 26 23 23 13 10 6 10 13 16 13 10 13 13 10 6 6 3 3 0 3 6 3 3 3 3 3 3 3 3 3 3 3 6 6 3 3 3 3 3 0 0

GEFSNGP_con_cape1000_216.txt.gz
Probability
0 0 0 3 0 0 3 3 3 13 13 23 19 23 23 26 23 32 29 29 26 39 39 39 42 45 48 52 45 45 42 39 39 29 29 32 29 29 23 26 29 19 23 23
0 0 0 3 3 6 10 10 10 16 19 13 19 19 26 29 23 26 23 23 35 35 39 35 35 42 42 42 42 35 35 39 29 26 26 29 26 23 23 23 26 23 23 19
0 0 0 0 3 13 13 13 13 16 13 13 13 16 26 26 23 19 19 29 42 35 42 42 39 42 39 32 29 29 26 26 29 29 26 26 19 19 19 16 19 19 16 16
0 0 0 0 0 0 3 6 6 6 10 16 19 19 26 23 19 13 26 26 29 35 45 42 42 42 35 26 29 26 26 26 26 26 26 26 23 26 26 19 19 16 13 13
0 0 0 0 0 0 6 19 13 16 19 23 19 26 23 26 23 23 32 32 32 29 32 35 32 35 32 32 29 29 29 29 26 23 23 23 19 23 23 19 19 13 6 6
0 0 0 0 0 3 3 13 10 19 23 19 16 23 23 19 29 23 29 19 29 23 29 32 35 35 35 32 32 29 32 29 26 26 23 19 19 16 16 19 13 10 6 6
0 0 0 0 10 0 0 10 10 23 23 26 19 19 23 19 23 29 26 23 19 19 26 32 32 32 29 35 39 39 32 29 23 19 19 13 16 13 10 13 16 10 6 6
0 0 0 6 10 10 3 10 13 19 26 26 26 26 23 19 13 13 16 23 16 16 19 26 29 29 32 35 35 32 29 29 23 16 16 13 13 10 10 10 13 13 13 6
0 3 3 3 6 10 6 13 16 23 26 26 32 29 23 19 10 10 10 13 6 16 16 23 23 29 29 26 26 23 26 26 23 23 16 16 10 10 10 6 13 10 13 10
6 3 3 3 6 6 10 13 13 16 23 29 26 23 26 23 13 16 10 3 3 10 16 23 19 23 23 16 16 19 23 23 23 23 19 16 13 13 10 10 10 10 10 10
0 3 6 10 6 10 16 19 16 19 26 19 23 19 26 16 13 10 13 10 6 10 10 13 19 13 16 13 23 23 23 23 23 23 19 16 13 6 6 10 6 6 10 10
6 0 3 6 6 13 13 16 19 23 32 29 26 26 19 19 19 19 16 3 6 10 13 13 13 10 10 16 16 23 26 26 23 23 16 13 6 6 6 6 6 3 3 6
0 3 3 3 6 16 16 16 19 23 26 29 23 23 23 19 23 23 19 6 10 16 13 13 13 13 13 13 19 19 19 23 23 19 16 10 6 6 6 3 0 0 0 0
0 3 3 13 16 19 13 16 16 23 23 23 19 19 19 16 16 23 19 19 16 10 10 13 13 10 10 10 13 13 16 10 16 13 10 6 6 6 6 6 6 3 0 0
3 3 10 10 16 16 16 13 13 19 23 26 19 16 13 16 16 19 16 16 16 13 10 10 10 10 10 6 3 3 3 10 6 10 10 10 6 6 6 6 6 6 3 0
3 6 6 13 10 13 13 16 16 16 26 16 16 16 13 13 13 16 10 10 13 13 13 13 10 10 6 6 0 0 0 0 3 10 10 10 6 6 6 6 6 6 3 3
3 6 6 13 10 13 13 16 16 19 19 19 19 16 10 10 10 10 10 10 13 13 13 13 10 10 6 3 3 3 0 0 0 3 6 10 10 6 6 6 6 6 3 3
0 6 6 10 13 16 16 16 19 16 13 19 19 10 10 10 10 10 6 6 6 10 10 10 13 10 10 3 3 3 0 0 0 3 6 10 10 6 6 6 6 6 3 0
3 3 6 6 16 16 16 16 19 13 13 16 10 10 10 10 10 10 3 3 3 6 6 3 3 6 6 6 3 3 0 0 3 3 6 6 6 6 6 6 6 6 3 0
6 6 19 16 19 16 16 19 16 13 16 13 10 10 10 10 6 6 3 3 3 0 0 3 3 3 3 3 3 3 3 3 6 6 6 6 6 6 6 6 6 3 0 0
10 13 13 19 19 19 19 19 13 13 13 10 10 10 6 6 6 6 3 0 0 0 0 0 3 3 3 0 0 3 3 6 10 10 10 6 6 6 6 6 3 0 0 0
16 16 16 19 19 19 19 16 13 13 10 6 6 6 6 6 6 0 0 0 0 0 0 0 0 0 3 0 0 6 6 6 13 6 6 6 6 6 6 3 3 0 0 0
16 16 16 19 19 19 19 13 13 13 10 3 6 6 6 3 3 3 0 0 0 0 0 0 0 0 0 3 6 6 6 6 6 6 6 6 6 6 3 3 0 0 0 0
6 10 10 10 16 13 13 13 10 10 3 3 3 3 3 3 3 0 0 0 0 0 0 0 0 0 0 6 6 6 3 0 3 3 3 3 3 3 0 0 0 0 0 0
6 6 6 10 10 10 13 6 3 3 3 3 3 3 3 3 3 3 0 0 0 0 0 0 0 0 3 0 0 0 0 0 3 3 3 3 3 0 0 0 0 0 0 0
6 6 6 6 10 10 6 3 3 3 3 3 3 3 3 3 3 3 3 0 0 0 0 0 0 0 0 0 0 0 0 3 3 3 3 3 3 0 0 0 0 0 0 0
6 6 6 6 6 3 3 3 3 3 3 3 3 3 3 3 0 0 0 0 0 0 0 0 0 0 0 0 0 0 0 3 3 3 3 3 0 0 0 0 0 0 0 0

GEFSNGP_con_cape1000_222.txt.gz
Probability
0 0 0 0 0 0 0 0 0 3 10 16 10 6 6 6 13 16 16 23 26 23 16 19 19 29 26 29 19 16 16 13 13 10 10 13 10 6 6 13 13 6 6 3
3 0 0 0 3 3 3 3 3 10 13 10 6 6 6 6 10 13 16 19 19 19 19 23 26 26 26 26 19 19 13 13 13 6 6 6 3 6 6 3 3 3 6 10
0 0 0 0 0 3 10 6 6 13 10 6 13 13 6 6 6 10 13 16 19 19 19 16 19 23 19 23 16 19 19 16 16 13 13 10 10 3 3 3 3 3 3 6
0 0 0 0 0 0 3 3 3 3 13 10 13 19 16 13 10 6 10 19 16 16 13 13 13 16 16 16 16 23 23 19 13 13 19 16 10 10 3 0 0 3 3 3
0 0 0 0 0 0 0 0 3 13 19 19 19 19 19 16 16 13 13 16 10 13 10 6 13 13 16 16 13 19 23 19 16 16 19 16 13 13 10 3 3 3 0 3
0 0 0 0 0 0 0 6 3 10 10 16 13 13 19 19 16 16 13 16 13 13 10 10 13 13 19 19 13 16 19 19 19 16 19 16 13 13 10 6 6 6 6 3
0 0 0 0 0 0 0 0 0 10 10 13 6 6 16 16 19 13 6 10 16 13 13 13 13 19 16 19 16 19 19 19 19 16 13 16 13 13 6 3 6 6 6 3
0 0 0 0 0 0 0 0 3 10 13 13 10 13 13 13 13 6 3 3 6 6 10 10 10 13 16 16 10 13 13 19 16 13 10 13 10 10 6 6 6 6 6 3
0 0 0 0 0 0 0 6 6 10 16 13 13 13 13 13 10 3 3 3 3 6 10 10 13 13 16 16 16 13 16 16 19 23 13 13 10 6 6 10 10 10 10 10
0 0 0 0 3 6 6 10 10 13 13 13 13 13 13 10 6 3 0 3 6 6 6 6 6 10 13 13 16 13 13 13 16 16 19 16 13 10 10 10 10 10 10 10
0 0 0 3 3 3 6 6 6 10 10 6 13 10 6 10 10 3 0 6 3 6 6 3 13 13 10 6 13 6 6 13 16 16 16 19 13 13 13 10 10 10 10 10
0 0 0 0 0 3 6 6 6 6 10 3 6 6 13 10 3 3 3 10 6 3 3 0 6 6 6 3 3 10 10 10 10 16 16 16 13 13 0 3 0 0 3 3
0 0 0 0 0 3 3 10 10 10 6 6 3 10 10 6 6 6 10 10 6 6 0 3 3 6 6 3 0 10 10 10 10 13 16 16 10 10 6 0 0 0 0 0
0 0 6 6 3 3 6 10 10 6 6 3 6 10 10 10 6 6 10 6 6 6 6 3 3 3 6 3 0 3 6 6 6 6 13 10 13 6 3 6 6 6 0 0
0 0 6 6 6 6 6 6 13 6 6 6 6 6 6 6 6 10 10 6 6 10 10 10 6 6 3 3 3 3 3 6 6 6 6 6 0 3 3 6 6 6 6 3
6 6 6 10 13 10 6 10 10 6 6 6 3 6 10 10 10 6 6 6 6 6 10 10 10 10 6 3 3 3 3 0 3 3 3 3 3 0 0 3 6 6 6 6
6 6 6 10 10 10 10 6 10 6 6 6 6 3 6 6 10 10 6 6 6 6 6 6 0 0 0 0 0 0 0 0 0 3 3 3 0 0 0 0 3 6 6 6
6 6 6 6 6 10 10 10 6 3 6 6 6 6 10 10 10 10 3 3 3 0 3 3 0 0 0 0 0 0 0 0 0 0 3 3 0 0 0 0 0 3 3 6
6 3 3 3 3 3 6 10 10 3 3 6 6 6 6 10 6 3 3 3 6 3 0 0 0 0 0 0 0 0 0 0 0 0 3 0 0 0 0 0 0 0 3 3
3 3 3 3 3 3 6 6 6 6 3 3 6 6 6 6 3 3 3 3 0 0 0 0 0 0 0 0 0 0 0 0 3 0 0 0 0 0 0 0 0 0 3 3
3 3 3 3 3 6 6 6 6 6 3 6 6 6 6 6 3 3 3 0 0 0 0 0 0 0 0 0 0 0 0 0 0 0 3 3 3 0 0 0 0 0 0 3
3 3 3 6 3 6 6 6 10 13 6 6 6 6 6 6 3 0 0 0 0 0 0 0 0 0 0 0 0 0 0 0 0 0 0 0 0 0 0 0 0 0 0 6
3 3 0 3 3 6 6 13 13 13 6 6 6 6 6 3 0 0 0 0 0 0 0 0 0 0 0 0 0 0 0 0 0 0 0 0 0 0 0 0 0 0 3 6
0 0 3 3 3 10 10 10 10 6 6 3 3 3 3 3 0 0 0 0 0 0 0 0 0 0 0 0 0 0 0 0 0 0 0 0 0 0 0 0 0 3 3 3
0 3 6 6 6 10 10 10 6 6 3 3 3 3 3 0 0 0 0 0 0 0 0 0 0 0 0 0 0 0 0 0 0 0 0 0 0 0 0 3 3 3 3 3
3 3 3 3 3 10 10 6 6 6 3 3 0 0 0 0 0 0 0 0 0 0 0 0 0 0 0 0 0 0 0 0 0 0 3 0 0 3 3 3 3 3 0 3
3 3 3 3 3 6 6 3 3 3 3 3 0 0 0 0 0 0 0 0 0 0 0 0 0 0 0 0 0 0 0 0 0 0 0 0 0 0 0 0 0 0 0 3